Wetterdaten: Samstag, 01.05.2010
Datum Zeit Temp. Innen Temp. Aussen UV X Diff Temp. Feuchte Inne Feuchte Auss Sonnenschein Luftdruck Regen ab 0,1 Wind Sonnenschein Windben
01.05.2010 00:04 19,7 C 10,3 C 0,0 UV-I 0,0 C 50 % 79 % 0 % 1012,5 hPa 0,0 l/m 0,0 km/h (0 Bft) 0 min 0,0 km/h (0 Bft)
01.05.2010 00:08 19,7 C 10,1 C 0,0 UV-I 0,0 C 49 % 79 % 0 % 1012,5 hPa 0,0 l/m 0,0 km/h (0 Bft) 0 min 0,0 km/h (0 Bft)
01.05.2010 00:10 19,7 C 10,1 C 0,0 UV-I 0,0 C 49 % 79 % 0 % 1012,5 hPa 0,0 l/m 0,0 km/h (0 Bft) 0 min 0,0 km/h (0 Bft)
01.05.2010 00:12 19,7 C 10,0 C 0,0 UV-I 0,0 C 49 % 79 % 0 % 1012,6 hPa 0,0 l/m 0,0 km/h (0 Bft) 0 min 0,0 km/h (0 Bft)
01.05.2010 00:14 19,7 C 10,0 C 0,0 UV-I 0,0 C 49 % 79 % 0 % 1012,6 hPa 0,0 l/m 0,0 km/h (0 Bft) 0 min 0,0 km/h (0 Bft)
01.05.2010 00:16 19,7 C 10,0 C 0,0 UV-I 0,0 C 49 % 80 % 0 % 1012,6 hPa 0,0 l/m 0,0 km/h (0 Bft) 0 min 0,0 km/h (0 Bft)
01.05.2010 00:20 19,7 C 9,9 C 0,0 UV-I 0,0 C 49 % 80 % 0 % 1012,6 hPa 0,0 l/m 0,0 km/h (0 Bft) 0 min 4,4 km/h (1 Bft)
01.05.2010 00:22 19,7 C 9,8 C 0,0 UV-I 0,0 C 49 % 80 % 0 % 1012,6 hPa 0,0 l/m 0,0 km/h (0 Bft) 0 min 0,0 km/h (0 Bft)
01.05.2010 00:26 19,6 C 9,9 C 0,0 UV-I 0,0 C 49 % 80 % 0 % 1012,6 hPa 0,0 l/m 0,0 km/h (0 Bft) 0 min 0,0 km/h (0 Bft)
01.05.2010 00:28 19,6 C 9,8 C 0,0 UV-I 0,0 C 50 % 81 % 0 % 1012,6 hPa 0,0 l/m 0,4 km/h (0 Bft) 0 min 4,4 km/h (1 Bft)
01.05.2010 00:30 19,6 C 9,7 C 0,0 UV-I 0,0 C 50 % 81 % 0 % 1012,6 hPa 0,0 l/m 0,4 km/h (0 Bft) 0 min 5,6 km/h (1 Bft)
01.05.2010 00:34 19,6 C 9,6 C 0,0 UV-I 0,0 C 50 % 81 % 0 % 1012,1 hPa 0,0 l/m 0,4 km/h (0 Bft) 0 min 0,0 km/h (0 Bft)
01.05.2010 00:36 19,6 C 9,6 C 0,0 UV-I 0,0 C 50 % 81 % 0 % 1012,1 hPa 0,0 l/m 0,4 km/h (0 Bft) 0 min 0,0 km/h (0 Bft)
01.05.2010 00:38 19,6 C 9,6 C 0,0 UV-I 0,0 C 50 % 81 % 0 % 1012,1 hPa 0,0 l/m 0,4 km/h (0 Bft) 0 min 0,0 km/h (0 Bft)
01.05.2010 00:44 19,6 C 9,6 C 0,0 UV-I 0,0 C 50 % 82 % 0 % 1012,1 hPa 0,0 l/m 0,4 km/h (0 Bft) 0 min 7,2 km/h (2 Bft)
01.05.2010 00:46 19,6 C 9,6 C 0,0 UV-I 0,0 C 50 % 82 % 0 % 1012,1 hPa 0,0 l/m 0,0 km/h (0 Bft) 0 min 0,0 km/h (0 Bft)
01.05.2010 00:52 19,6 C 9,5 C 0,0 UV-I 0,0 C 50 % 82 % 0 % 1012,8 hPa 0,0 l/m 0,0 km/h (0 Bft) 0 min 0,0 km/h (0 Bft)
01.05.2010 00:54 19,6 C 9,5 C 0,0 UV-I 0,0 C 50 % 82 % 0 % 1012,8 hPa 0,0 l/m 0,0 km/h (0 Bft) 0 min 0,0 km/h (0 Bft)
01.05.2010 00:58 19,6 C 9,5 C 0,0 UV-I 0,0 C 50 % 82 % 0 % 1012,8 hPa 0,0 l/m 0,0 km/h (0 Bft) 0 min 0,0 km/h (0 Bft)
01.05.2010 01:04 19,6 C 9,5 C 0,0 UV-I 0,0 C 50 % 82 % 0 % 1012,8 hPa 0,0 l/m 0,0 km/h (0 Bft) 0 min 0,0 km/h (0 Bft)
01.05.2010 01:06 19,6 C 9,5 C 0,0 UV-I 0,0 C 50 % 82 % 0 % 1012,8 hPa 0,0 l/m 0,0 km/h (0 Bft) 0 min 0,0 km/h (0 Bft)
01.05.2010 01:08 19,6 C 9,5 C 0,0 UV-I 0,0 C 50 % 82 % 0 % 1012,8 hPa 0,0 l/m 0,4 km/h (0 Bft) 0 min 0,0 km/h (0 Bft)
01.05.2010 01:10 19,6 C 9,5 C 0,0 UV-I 0,0 C 50 % 81 % 0 % 1012,8 hPa 0,0 l/m 0,4 km/h (0 Bft) 0 min 0,0 km/h (0 Bft)
01.05.2010 01:20 19,6 C 9,7 C 0,0 UV-I 0,0 C 49 % 80 % 0 % 1012,6 hPa 0,0 l/m 1,2 km/h (1 Bft) 0 min 4,4 km/h (1 Bft)
01.05.2010 01:24 19,5 C 9,9 C 0,0 UV-I 0,0 C 49 % 79 % 0 % 1012,6 hPa 0,0 l/m 0,4 km/h (0 Bft) 0 min 0,0 km/h (0 Bft)
01.05.2010 01:26 19,5 C 9,9 C 0,0 UV-I 0,0 C 49 % 79 % 0 % 1012,6 hPa 0,0 l/m 0,0 km/h (0 Bft) 0 min 0,0 km/h (0 Bft)
01.05.2010 01:30 19,5 C 9,9 C 0,0 UV-I 0,0 C 49 % 78 % 0 % 1012,6 hPa 0,0 l/m 0,0 km/h (0 Bft) 0 min 0,0 km/h (0 Bft)
01.05.2010 01:32 19,5 C 9,9 C 0,0 UV-I 0,0 C 49 % 78 % 0 % 1012,4 hPa 0,0 l/m 0,0 km/h (0 Bft) 0 min 0,0 km/h (0 Bft)
01.05.2010 01:34 19,5 C 9,9 C 0,0 UV-I 0,1 C 49 % 78 % 0 % 1012,4 hPa 0,0 l/m 0,4 km/h (0 Bft) 0 min 0,0 km/h (0 Bft)
01.05.2010 01:36 19,5 C 9,9 C 0,0 UV-I 0,1 C 49 % 78 % 0 % 1012,4 hPa 0,0 l/m 0,4 km/h (0 Bft) 0 min 0,0 km/h (0 Bft)
01.05.2010 01:38 19,5 C 10,0 C 0,0 UV-I 0,0 C 49 % 78 % 0 % 1012,4 hPa 0,0 l/m 0,4 km/h (0 Bft) 0 min 4,4 km/h (1 Bft)
01.05.2010 01:42 19,5 C 10,0 C 0,0 UV-I 0,0 C 49 % 77 % 0 % 1012,4 hPa 0,0 l/m 0,4 km/h (0 Bft) 0 min 0,0 km/h (0 Bft)
01.05.2010 01:44 19,5 C 10,0 C 0,0 UV-I 0,0 C 49 % 77 % 0 % 1012,4 hPa 0,0 l/m 0,4 km/h (0 Bft) 0 min 5,6 km/h (1 Bft)
01.05.2010 01:48 19,5 C 10,0 C 0,0 UV-I 0,0 C 49 % 77 % 0 % 1012,4 hPa 0,0 l/m 0,8 km/h (0 Bft) 0 min 0,0 km/h (0 Bft)
01.05.2010 01:53 19,5 C 10,0 C 0,0 UV-I 0,0 C 49 % 77 % 0 % 1012,4 hPa 0,0 l/m 0,4 km/h (0 Bft) 0 min 0,0 km/h (0 Bft)
01.05.2010 01:58 19,5 C 10,1 C 0,0 UV-I 0,0 C 49 % 76 % 0 % 1012,4 hPa 0,0 l/m 0,8 km/h (0 Bft) 0 min 0,0 km/h (0 Bft)
01.05.2010 02:03 19,5 C 10,1 C 0,0 UV-I 0,0 C 49 % 76 % 0 % 1012,4 hPa 0,0 l/m 1,2 km/h (1 Bft) 0 min 0,0 km/h (0 Bft)
01.05.2010 02:08 19,5 C 10,3 C 0,0 UV-I 0,0 C 49 % 76 % 0 % 1012,4 hPa 0,0 l/m 0,4 km/h (0 Bft) 0 min 4,4 km/h (1 Bft)
01.05.2010 02:13 19,5 C 10,2 C 0,0 UV-I 0,0 C 49 % 76 % 0 % 1012,4 hPa 0,0 l/m 0,4 km/h (0 Bft) 0 min 0,0 km/h (0 Bft)
01.05.2010 02:18 19,5 C 10,2 C 0,0 UV-I 0,0 C 49 % 76 % 0 % 1012,4 hPa 0,0 l/m 0,4 km/h (0 Bft) 0 min 4,0 km/h (1 Bft)
01.05.2010 02:23 19,4 C 10,3 C 0,0 UV-I 0,0 C 49 % 75 % 0 % 1012,4 hPa 0,0 l/m 0,0 km/h (0 Bft) 0 min 0,0 km/h (0 Bft)
01.05.2010 02:28 19,4 C 10,2 C 0,0 UV-I 0,0 C 49 % 75 % 0 % 1012,4 hPa 0,0 l/m 0,0 km/h (0 Bft) 0 min 0,0 km/h (0 Bft)
01.05.2010 02:33 19,4 C 10,2 C 0,0 UV-I 0,0 C 49 % 75 % 0 % 1012,4 hPa 0,0 l/m 0,0 km/h (0 Bft) 0 min 0,0 km/h (0 Bft)
01.05.2010 02:38 19,4 C 10,3 C 0,0 UV-I 0,0 C 48 % 75 % 0 % 1012,4 hPa 0,0 l/m 0,0 km/h (0 Bft) 0 min 0,0 km/h (0 Bft)
01.05.2010 02:43 19,4 C 10,2 C 0,0 UV-I 0,0 C 49 % 75 % 0 % 1012,4 hPa 0,0 l/m 0,0 km/h (0 Bft) 0 min 0,0 km/h (0 Bft)
01.05.2010 02:48 19,4 C 10,3 C 0,0 UV-I 0,0 C 49 % 75 % 0 % 1012,4 hPa 0,0 l/m 0,4 km/h (0 Bft) 0 min 4,0 km/h (1 Bft)
01.05.2010 02:53 19,4 C 10,3 C 0,0 UV-I 0,0 C 48 % 75 % 0 % 1012,4 hPa 0,0 l/m 0,4 km/h (0 Bft) 0 min 0,0 km/h (0 Bft)
01.05.2010 02:58 19,4 C 10,3 C 0,0 UV-I 0,0 C 48 % 75 % 0 % 1012,4 hPa 0,0 l/m 0,4 km/h (0 Bft) 0 min 6,4 km/h (2 Bft)
01.05.2010 03:03 19,4 C 10,3 C 0,0 UV-I 0,0 C 48 % 75 % 0 % 1012,4 hPa 0,0 l/m 0,4 km/h (0 Bft) 0 min 4,4 km/h (1 Bft)
01.05.2010 03:08 19,4 C 10,3 C 0,0 UV-I 0,0 C 48 % 75 % 0 % 1012,4 hPa 0,0 l/m 0,8 km/h (0 Bft) 0 min 4,4 km/h (1 Bft)
01.05.2010 03:13 19,4 C 10,4 C 0,0 UV-I 0,0 C 48 % 75 % 0 % 1012,0 hPa 0,0 l/m 0,8 km/h (0 Bft) 0 min 0,0 km/h (0 Bft)
01.05.2010 03:18 19,4 C 10,3 C 0,0 UV-I 0,0 C 48 % 74 % 0 % 1012,0 hPa 0,0 l/m 0,4 km/h (0 Bft) 0 min 0,0 km/h (0 Bft)
01.05.2010 03:23 19,4 C 10,4 C 0,0 UV-I 0,0 C 48 % 75 % 0 % 1012,0 hPa 0,0 l/m 0,0 km/h (0 Bft) 0 min 0,0 km/h (0 Bft)
01.05.2010 03:28 19,4 C 10,4 C 0,0 UV-I 0,0 C 48 % 74 % 0 % 1012,0 hPa 0,0 l/m 0,4 km/h (0 Bft) 0 min 0,0 km/h (0 Bft)
01.05.2010 03:33 19,4 C 10,4 C 0,0 UV-I 0,0 C 48 % 74 % 0 % 1011,8 hPa 0,0 l/m 0,4 km/h (0 Bft) 0 min 0,0 km/h (0 Bft)
01.05.2010 03:38 19,4 C 10,4 C 0,0 UV-I 0,0 C 48 % 74 % 0 % 1011,8 hPa 0,0 l/m 0,4 km/h (0 Bft) 0 min 4,8 km/h (1 Bft)
01.05.2010 03:43 19,4 C 10,4 C 0,0 UV-I 0,0 C 48 % 74 % 0 % 1011,8 hPa 0,0 l/m 0,4 km/h (0 Bft) 0 min 0,0 km/h (0 Bft)
01.05.2010 03:48 19,4 C 10,4 C 0,0 UV-I 0,0 C 48 % 74 % 0 % 1011,8 hPa 0,0 l/m 0,4 km/h (0 Bft) 0 min 0,0 km/h (0 Bft)
01.05.2010 03:53 19,4 C 10,4 C 0,0 UV-I 0,0 C 48 % 74 % 0 % 1011,8 hPa 0,0 l/m 0,0 km/h (0 Bft) 0 min 0,0 km/h (0 Bft)
01.05.2010 03:58 19,4 C 10,4 C 0,0 UV-I 0,0 C 48 % 74 % 0 % 1011,8 hPa 0,0 l/m 1,2 km/h (1 Bft) 0 min 0,0 km/h (0 Bft)
01.05.2010 04:03 19,2 C 10,4 C 0,0 UV-I 0,0 C 48 % 74 % 0 % 1011,8 hPa 0,0 l/m 1,6 km/h (1 Bft) 0 min 0,0 km/h (0 Bft)
01.05.2010 04:08 19,2 C 10,4 C 0,0 UV-I 0,0 C 48 % 73 % 0 % 1011,8 hPa 0,0 l/m 0,8 km/h (0 Bft) 0 min 0,0 km/h (0 Bft)
01.05.2010 04:13 19,2 C 10,5 C 0,0 UV-I 0,0 C 48 % 73 % 0 % 1011,6 hPa 0,0 l/m 0,8 km/h (0 Bft) 0 min 0,0 km/h (0 Bft)
01.05.2010 04:19 19,2 C 10,5 C 0,0 UV-I 0,0 C 48 % 73 % 0 % 1011,6 hPa 0,0 l/m 1,2 km/h (1 Bft) 0 min 0,0 km/h (0 Bft)
01.05.2010 04:22 19,2 C 10,5 C 0,0 UV-I 0,0 C 48 % 73 % 0 % 1011,6 hPa 0,0 l/m 0,8 km/h (0 Bft) 0 min 4,0 km/h (1 Bft)
01.05.2010 04:24 19,3 C 10,5 C 0,0 UV-I 0,0 C 48 % 73 % 0 % 1011,6 hPa 0,0 l/m 0,8 km/h (0 Bft) 0 min 0,0 km/h (0 Bft)
01.05.2010 04:26 19,3 C 10,5 C 0,0 UV-I 0,0 C 48 % 73 % 0 % 1011,6 hPa 0,0 l/m 0,4 km/h (0 Bft) 0 min 0,0 km/h (0 Bft)
01.05.2010 04:28 19,2 C 10,5 C 0,0 UV-I 0,0 C 48 % 73 % 0 % 1011,6 hPa 0,0 l/m 0,4 km/h (0 Bft) 0 min 0,0 km/h (0 Bft)
01.05.2010 04:30 19,3 C 10,6 C 0,0 UV-I 0,0 C 48 % 73 % 0 % 1011,6 hPa 0,0 l/m 0,4 km/h (0 Bft) 0 min 4,4 km/h (1 Bft)
01.05.2010 04:32 19,2 C 10,6 C 0,0 UV-I 0,0 C 48 % 73 % 0 % 1011,4 hPa 0,0 l/m 0,4 km/h (0 Bft) 0 min 0,0 km/h (0 Bft)
01.05.2010 04:34 19,3 C 10,6 C 0,0 UV-I 0,0 C 48 % 73 % 0 % 1011,4 hPa 0,0 l/m 0,4 km/h (0 Bft) 0 min 0,0 km/h (0 Bft)
01.05.2010 04:36 19,3 C 10,6 C 0,0 UV-I 0,0 C 48 % 73 % 0 % 1011,4 hPa 0,0 l/m 0,4 km/h (0 Bft) 0 min 4,4 km/h (1 Bft)
01.05.2010 04:38 19,3 C 10,5 C 0,0 UV-I 0,0 C 48 % 73 % 0 % 1011,4 hPa 0,0 l/m 1,2 km/h (1 Bft) 0 min 0,0 km/h (0 Bft)
01.05.2010 04:40 19,3 C 10,5 C 0,0 UV-I 0,0 C 48 % 73 % 0 % 1011,4 hPa 0,0 l/m 1,2 km/h (1 Bft) 0 min 10,8 km/h (2 Bft)
01.05.2010 04:42 19,3 C 10,6 C 0,0 UV-I 0,0 C 48 % 73 % 0 % 1011,4 hPa 0,0 l/m 0,8 km/h (0 Bft) 0 min 0,0 km/h (0 Bft)
01.05.2010 04:44 19,2 C 10,6 C 0,0 UV-I 0,0 C 48 % 73 % 0 % 1011,4 hPa 0,0 l/m 1,2 km/h (1 Bft) 0 min 0,0 km/h (0 Bft)
01.05.2010 04:46 19,2 C 10,5 C 0,0 UV-I 0,0 C 48 % 73 % 0 % 1011,4 hPa 0,0 l/m 1,6 km/h (1 Bft) 0 min 8,4 km/h (2 Bft)
01.05.2010 04:48 19,2 C 10,5 C 0,0 UV-I 0,0 C 48 % 73 % 0 % 1011,4 hPa 0,0 l/m 1,6 km/h (1 Bft) 0 min 8,0 km/h (2 Bft)
01.05.2010 04:50 19,2 C 10,5 C 0,0 UV-I 0,0 C 48 % 73 % 0 % 1011,4 hPa 0,0 l/m 1,2 km/h (1 Bft) 0 min 0,0 km/h (0 Bft)
01.05.2010 04:52 19,2 C 10,5 C 0,0 UV-I 0,0 C 48 % 73 % 0 % 1011,6 hPa 0,0 l/m 1,2 km/h (1 Bft) 0 min 5,2 km/h (1 Bft)
01.05.2010 04:54 19,2 C 10,5 C 0,0 UV-I 0,0 C 48 % 73 % 0 % 1011,6 hPa 0,0 l/m 1,2 km/h (1 Bft) 0 min 0,0 km/h (0 Bft)
01.05.2010 04:56 19,2 C 10,5 C 0,0 UV-I 0,0 C 48 % 73 % 0 % 1011,6 hPa 0,0 l/m 1,2 km/h (1 Bft) 0 min 0,0 km/h (0 Bft)
01.05.2010 04:58 19,2 C 10,4 C 0,0 UV-I 0,0 C 48 % 73 % 0 % 1011,6 hPa 0,0 l/m 0,4 km/h (0 Bft) 0 min 0,0 km/h (0 Bft)
01.05.2010 05:00 19,2 C 10,4 C 0,0 UV-I 0,0 C 48 % 73 % 0 % 1011,6 hPa 0,0 l/m 0,0 km/h (0 Bft) 0 min 0,0 km/h (0 Bft)
01.05.2010 05:02 19,2 C 10,4 C 0,0 UV-I 0,0 C 48 % 73 % 0 % 1011,6 hPa 0,0 l/m 0,0 km/h (0 Bft) 0 min 0,0 km/h (0 Bft)
01.05.2010 05:04 19,2 C 10,4 C 0,0 UV-I 0,0 C 48 % 73 % 0 % 1011,6 hPa 0,0 l/m 0,0 km/h (0 Bft) 0 min 0,0 km/h (0 Bft)
01.05.2010 05:06 19,2 C 10,4 C 0,0 UV-I 0,0 C 48 % 73 % 0 % 1011,6 hPa 0,0 l/m 0,0 km/h (0 Bft) 0 min 5,2 km/h (1 Bft)
01.05.2010 05:08 19,2 C 10,4 C 0,0 UV-I 0,0 C 48 % 73 % 0 % 1011,6 hPa 0,0 l/m 0,4 km/h (0 Bft) 0 min 0,0 km/h (0 Bft)
01.05.2010 05:10 19,2 C 10,4 C 0,0 UV-I 0,0 C 48 % 73 % 0 % 1011,6 hPa 0,0 l/m 0,8 km/h (0 Bft) 0 min 6,0 km/h (2 Bft)
01.05.2010 05:12 19,2 C 10,4 C 0,0 UV-I 0,0 C 48 % 73 % 0 % 1011,4 hPa 0,0 l/m 1,2 km/h (1 Bft) 0 min 0,0 km/h (0 Bft)
01.05.2010 05:14 19,2 C 10,4 C 0,0 UV-I 0,0 C 48 % 73 % 0 % 1011,4 hPa 0,0 l/m 1,2 km/h (1 Bft) 0 min 0,0 km/h (0 Bft)
01.05.2010 05:16 19,2 C 10,4 C 0,0 UV-I 0,0 C 48 % 73 % 0 % 1011,4 hPa 0,0 l/m 0,8 km/h (0 Bft) 0 min 0,0 km/h (0 Bft)
01.05.2010 05:18 19,2 C 10,3 C 0,0 UV-I 0,0 C 48 % 73 % 0 % 1011,4 hPa 0,0 l/m 0,8 km/h (0 Bft) 0 min 0,0 km/h (0 Bft)
01.05.2010 05:20 19,2 C 10,3 C 0,0 UV-I 0,0 C 48 % 73 % 0 % 1011,4 hPa 0,0 l/m 0,8 km/h (0 Bft) 0 min 0,0 km/h (0 Bft)
01.05.2010 05:22 19,2 C 10,3 C 0,0 UV-I 0,0 C 48 % 73 % 0 % 1011,4 hPa 0,0 l/m 0,8 km/h (0 Bft) 0 min 0,0 km/h (0 Bft)
01.05.2010 05:24 19,2 C 10,2 C 0,0 UV-I 0,0 C 48 % 74 % 0 % 1011,4 hPa 0,0 l/m 0,4 km/h (0 Bft) 0 min 0,0 km/h (0 Bft)
01.05.2010 05:26 19,2 C 10,2 C 0,0 UV-I 0,0 C 48 % 74 % 0 % 1011,4 hPa 0,0 l/m 1,2 km/h (1 Bft) 0 min 4,8 km/h (1 Bft)
01.05.2010 05:28 19,2 C 10,3 C 0,0 UV-I 0,0 C 48 % 74 % 0 % 1011,4 hPa 0,0 l/m 1,2 km/h (1 Bft) 0 min 0,0 km/h (0 Bft)
01.05.2010 05:30 19,2 C 10,3 C 0,0 UV-I 0,0 C 48 % 74 % 0 % 1011,4 hPa 0,0 l/m 1,2 km/h (1 Bft) 0 min 12,8 km/h (3 Bft)
01.05.2010 05:32 19,2 C 10,3 C 0,0 UV-I 0,0 C 48 % 74 % 0 % 1011,4 hPa 0,0 l/m 0,8 km/h (0 Bft) 0 min 0,0 km/h (0 Bft)
01.05.2010 05:34 19,2 C 10,3 C 0,0 UV-I 0,0 C 48 % 74 % 0 % 1011,4 hPa 0,0 l/m 1,2 km/h (1 Bft) 0 min 4,4 km/h (1 Bft)
01.05.2010 05:36 19,2 C 10,2 C 0,0 UV-I 0,0 C 48 % 74 % 0 % 1011,4 hPa 0,0 l/m 1,2 km/h (1 Bft) 0 min 0,0 km/h (0 Bft)
01.05.2010 05:38 19,1 C 10,1 C 0,0 UV-I 0,0 C 48 % 74 % 0 % 1011,4 hPa 0,0 l/m 0,8 km/h (0 Bft) 0 min 0,0 km/h (0 Bft)
01.05.2010 05:40 19,1 C 10,1 C 0,0 UV-I 0,0 C 48 % 74 % 0 % 1011,4 hPa 0,0 l/m 1,2 km/h (1 Bft) 0 min 0,0 km/h (0 Bft)
01.05.2010 05:42 19,1 C 10,1 C 0,0 UV-I 0,0 C 48 % 74 % 0 % 1011,4 hPa 0,0 l/m 1,6 km/h (1 Bft) 0 min 4,8 km/h (1 Bft)
01.05.2010 05:44 19,2 C 10,1 C 0,0 UV-I 0,0 C 48 % 74 % 0 % 1011,4 hPa 0,0 l/m 2,0 km/h (1 Bft) 0 min 0,0 km/h (0 Bft)
01.05.2010 05:46 19,2 C 10,0 C 0,0 UV-I 0,0 C 48 % 74 % 0 % 1011,4 hPa 0,0 l/m 1,6 km/h (1 Bft) 0 min 0,0 km/h (0 Bft)
01.05.2010 05:48 19,1 C 10,0 C 0,0 UV-I 0,0 C 48 % 74 % 0 % 1011,4 hPa 0,0 l/m 1,6 km/h (1 Bft) 0 min 0,0 km/h (0 Bft)
01.05.2010 05:50 19,1 C 10,0 C 0,0 UV-I 0,0 C 48 % 74 % 0 % 1011,4 hPa 0,0 l/m 1,2 km/h (1 Bft) 0 min 5,2 km/h (1 Bft)
01.05.2010 05:52 19,1 C 10,1 C 0,0 UV-I 0,0 C 48 % 74 % 0 % 1011,1 hPa 0,0 l/m 0,8 km/h (0 Bft) 0 min 0,0 km/h (0 Bft)
01.05.2010 05:54 19,1 C 10,1 C 0,0 UV-I 0,0 C 48 % 74 % 0 % 1011,1 hPa 0,0 l/m 0,4 km/h (0 Bft) 0 min 4,0 km/h (1 Bft)
01.05.2010 05:56 19,1 C 10,0 C 0,0 UV-I 0,0 C 48 % 74 % 0 % 1011,1 hPa 0,0 l/m 0,4 km/h (0 Bft) 0 min 4,8 km/h (1 Bft)
01.05.2010 05:58 19,1 C 10,0 C 0,0 UV-I 0,0 C 48 % 74 % 0 % 1011,1 hPa 0,0 l/m 0,4 km/h (0 Bft) 0 min 0,0 km/h (0 Bft)
01.05.2010 06:00 19,1 C 9,9 C 0,0 UV-I 0,0 C 48 % 74 % 0 % 1011,1 hPa 0,0 l/m 0,8 km/h (0 Bft) 0 min 4,8 km/h (1 Bft)
01.05.2010 06:02 19,1 C 9,9 C 0,0 UV-I 0,0 C 48 % 75 % 0 % 1011,1 hPa 0,0 l/m 0,4 km/h (0 Bft) 0 min 0,0 km/h (0 Bft)
01.05.2010 06:04 19,1 C 9,9 C 0,0 UV-I 0,0 C 48 % 75 % 0 % 1011,1 hPa 0,0 l/m 0,4 km/h (0 Bft) 0 min 0,0 km/h (0 Bft)
01.05.2010 06:06 19,1 C 9,9 C 0,0 UV-I 0,0 C 48 % 75 % 0 % 1011,1 hPa 0,0 l/m 1,6 km/h (1 Bft) 0 min 13,7 km/h (3 Bft)
01.05.2010 06:08 19,0 C 9,9 C 0,0 UV-I 0,0 C 48 % 75 % 0 % 1011,1 hPa 0,0 l/m 2,4 km/h (1 Bft) 0 min 6,8 km/h (2 Bft)
01.05.2010 06:10 19,0 C 9,9 C 0,0 UV-I 0,0 C 48 % 75 % 0 % 1011,1 hPa 0,0 l/m 2,8 km/h (1 Bft) 0 min 13,7 km/h (3 Bft)
01.05.2010 06:12 19,1 C 9,9 C 0,0 UV-I 0,0 C 48 % 75 % 0 % 1010,9 hPa 0,0 l/m 2,8 km/h (1 Bft) 0 min 0,0 km/h (0 Bft)
01.05.2010 06:14 19,0 C 9,8 C 0,0 UV-I 0,0 C 48 % 75 % 0 % 1010,9 hPa 0,0 l/m 2,8 km/h (1 Bft) 0 min 0,0 km/h (0 Bft)
01.05.2010 06:16 19,0 C 9,8 C 0,0 UV-I 0,0 C 48 % 75 % 0 % 1010,9 hPa 0,0 l/m 2,4 km/h (1 Bft) 0 min 0,0 km/h (0 Bft)
01.05.2010 06:18 19,0 C 9,8 C 0,0 UV-I 0,0 C 48 % 75 % 0 % 1010,9 hPa 0,0 l/m 2,0 km/h (1 Bft) 0 min 8,8 km/h (2 Bft)
01.05.2010 06:20 19,0 C 9,8 C 0,0 UV-I 0,0 C 48 % 75 % 0 % 1010,9 hPa 0,0 l/m 2,4 km/h (1 Bft) 0 min 5,2 km/h (1 Bft)
01.05.2010 06:22 19,0 C 9,9 C 0,0 UV-I 0,0 C 48 % 75 % 0 % 1010,9 hPa 0,0 l/m 2,4 km/h (1 Bft) 0 min 0,0 km/h (0 Bft)
01.05.2010 06:24 19,0 C 9,9 C 0,0 UV-I 0,0 C 48 % 75 % 0 % 1010,9 hPa 0,0 l/m 2,4 km/h (1 Bft) 0 min 6,4 km/h (2 Bft)
01.05.2010 06:26 19,0 C 9,9 C 0,0 UV-I 0,0 C 48 % 75 % 0 % 1010,9 hPa 0,0 l/m 3,2 km/h (1 Bft) 0 min 6,4 km/h (2 Bft)
01.05.2010 06:28 19,0 C 9,9 C 0,0 UV-I 0,0 C 48 % 75 % 0 % 1010,9 hPa 0,0 l/m 4,0 km/h (1 Bft) 0 min 10,8 km/h (2 Bft)
01.05.2010 06:30 19,0 C 9,9 C 0,0 UV-I 0,0 C 48 % 75 % 0 % 1010,9 hPa 0,0 l/m 3,6 km/h (1 Bft) 0 min 19,7 km/h (3 Bft)
01.05.2010 06:32 19,0 C 9,9 C 0,0 UV-I 0,0 C 48 % 75 % 0 % 1011,0 hPa 0,0 l/m 3,6 km/h (1 Bft) 0 min 6,4 km/h (2 Bft)
01.05.2010 06:34 19,0 C 9,9 C 0,0 UV-I 0,0 C 48 % 75 % 0 % 1011,0 hPa 0,0 l/m 3,6 km/h (1 Bft) 0 min 0,0 km/h (0 Bft)
01.05.2010 06:36 19,0 C 9,9 C 0,0 UV-I 0,0 C 48 % 75 % 0 % 1011,0 hPa 0,0 l/m 3,2 km/h (1 Bft) 0 min 0,0 km/h (0 Bft)
01.05.2010 06:38 19,0 C 9,9 C 0,0 UV-I 0,0 C 48 % 75 % 0 % 1011,0 hPa 0,0 l/m 3,2 km/h (1 Bft) 0 min 7,2 km/h (2 Bft)
01.05.2010 06:40 19,0 C 9,9 C 0,0 UV-I 0,0 C 48 % 75 % 0 % 1011,0 hPa 0,0 l/m 2,0 km/h (1 Bft) 0 min 4,0 km/h (1 Bft)
01.05.2010 06:42 19,0 C 9,9 C 0,0 UV-I 0,0 C 48 % 74 % 0 % 1011,0 hPa 0,0 l/m 2,4 km/h (1 Bft) 0 min 8,4 km/h (2 Bft)
01.05.2010 06:44 19,0 C 9,8 C 0,0 UV-I 0,0 C 48 % 74 % 0 % 1011,0 hPa 0,0 l/m 3,2 km/h (1 Bft) 0 min 9,6 km/h (2 Bft)
01.05.2010 06:46 18,9 C 9,8 C 0,0 UV-I 0,0 C 48 % 74 % 0 % 1011,0 hPa 0,0 l/m 3,6 km/h (1 Bft) 0 min 0,0 km/h (0 Bft)
01.05.2010 06:48 19,0 C 9,8 C 0,0 UV-I 0,0 C 48 % 74 % 0 % 1011,0 hPa 0,0 l/m 3,2 km/h (1 Bft) 0 min 7,2 km/h (2 Bft)
01.05.2010 06:50 19,0 C 9,8 C 0,0 UV-I 0,0 C 48 % 74 % 0 % 1011,0 hPa 0,0 l/m 3,6 km/h (1 Bft) 0 min 6,4 km/h (2 Bft)
01.05.2010 06:52 19,0 C 9,9 C 0,0 UV-I 0,0 C 48 % 74 % 0 % 1011,5 hPa 0,0 l/m 3,6 km/h (1 Bft) 0 min 6,0 km/h (2 Bft)
01.05.2010 06:54 18,9 C 9,9 C 0,0 UV-I 0,0 C 48 % 74 % 0 % 1011,5 hPa 0,0 l/m 2,8 km/h (1 Bft) 0 min 0,0 km/h (0 Bft)
01.05.2010 06:56 18,9 C 9,9 C 0,0 UV-I 0,0 C 48 % 74 % 0 % 1011,5 hPa 0,0 l/m 2,0 km/h (1 Bft) 0 min 0,0 km/h (0 Bft)
01.05.2010 06:58 18,9 C 9,9 C 0,0 UV-I 0,0 C 48 % 74 % 0 % 1011,5 hPa 0,0 l/m 2,0 km/h (1 Bft) 0 min 0,0 km/h (0 Bft)
01.05.2010 07:00 18,9 C 9,8 C 0,1 UV-I 0,0 C 48 % 74 % 0 % 1011,5 hPa 0,0 l/m 2,0 km/h (1 Bft) 0 min 4,0 km/h (1 Bft)
01.05.2010 07:02 18,9 C 9,8 C 0,1 UV-I 0,0 C 48 % 74 % 0 % 1011,5 hPa 0,0 l/m 2,0 km/h (1 Bft) 0 min 8,4 km/h (2 Bft)
01.05.2010 07:04 18,9 C 9,9 C 0,1 UV-I 0,0 C 48 % 74 % 0 % 1011,5 hPa 0,0 l/m 2,4 km/h (1 Bft) 0 min 7,2 km/h (2 Bft)
01.05.2010 07:06 18,9 C 10,0 C 0,0 UV-I 0,0 C 48 % 74 % 0 % 1011,5 hPa 0,0 l/m 3,2 km/h (1 Bft) 0 min 7,6 km/h (2 Bft)
01.05.2010 07:08 18,9 C 10,0 C 0,0 UV-I 0,0 C 48 % 74 % 0 % 1011,5 hPa 0,0 l/m 3,6 km/h (1 Bft) 0 min 5,6 km/h (1 Bft)
01.05.2010 07:10 18,9 C 10,0 C 0,1 UV-I 0,0 C 48 % 74 % 0 % 1011,5 hPa 0,0 l/m 4,0 km/h (1 Bft) 0 min 5,2 km/h (1 Bft)
01.05.2010 07:12 18,9 C 10,1 C 0,1 UV-I 0,0 C 48 % 74 % 0 % 1011,4 hPa 0,0 l/m 4,8 km/h (1 Bft) 0 min 5,6 km/h (1 Bft)
01.05.2010 07:14 18,9 C 10,1 C 0,1 UV-I 0,0 C 48 % 74 % 0 % 1011,4 hPa 0,0 l/m 4,4 km/h (1 Bft) 0 min 0,0 km/h (0 Bft)
01.05.2010 07:16 18,9 C 10,0 C 0,0 UV-I 0,0 C 48 % 74 % 0 % 1011,4 hPa 0,0 l/m 3,6 km/h (1 Bft) 0 min 0,0 km/h (0 Bft)
01.05.2010 07:18 18,9 C 10,0 C 0,0 UV-I 0,0 C 48 % 74 % 0 % 1011,4 hPa 0,0 l/m 3,2 km/h (1 Bft) 0 min 5,6 km/h (1 Bft)
01.05.2010 07:20 18,9 C 10,1 C 0,2 UV-I 0,0 C 48 % 74 % 0 % 1011,4 hPa 0,0 l/m 2,4 km/h (1 Bft) 0 min 0,0 km/h (0 Bft)
01.05.2010 07:22 18,9 C 10,0 C 0,2 UV-I 0,1 C 48 % 74 % 3 % 1011,4 hPa 0,0 l/m 2,0 km/h (1 Bft) 0 min 4,0 km/h (1 Bft)
01.05.2010 07:24 18,9 C 10,0 C 0,2 UV-I 0,1 C 48 % 74 % 3 % 1011,4 hPa 0,0 l/m 1,6 km/h (1 Bft) 0 min 0,0 km/h (0 Bft)
01.05.2010 07:26 18,9 C 10,1 C 0,1 UV-I 0,1 C 48 % 74 % 3 % 1011,4 hPa 0,0 l/m 2,0 km/h (1 Bft) 0 min 4,8 km/h (1 Bft)
01.05.2010 07:28 18,9 C 10,1 C 0,1 UV-I 0,1 C 48 % 74 % 3 % 1011,4 hPa 0,0 l/m 2,0 km/h (1 Bft) 0 min 0,0 km/h (0 Bft)
01.05.2010 07:30 18,9 C 10,1 C 0,2 UV-I 0,1 C 48 % 74 % 3 % 1011,4 hPa 0,0 l/m 1,6 km/h (1 Bft) 0 min 0,0 km/h (0 Bft)
01.05.2010 07:32 18,9 C 10,1 C 0,2 UV-I 0,1 C 48 % 74 % 3 % 1011,1 hPa 0,0 l/m 1,2 km/h (1 Bft) 0 min 0,0 km/h (0 Bft)
01.05.2010 07:34 18,9 C 10,1 C 0,2 UV-I 0,2 C 48 % 74 % 6 % 1011,1 hPa 0,0 l/m 1,6 km/h (1 Bft) 0 min 4,4 km/h (1 Bft)
01.05.2010 07:36 18,9 C 10,3 C 0,2 UV-I 0,0 C 48 % 75 % 0 % 1011,1 hPa 0,0 l/m 1,6 km/h (1 Bft) 0 min 9,2 km/h (2 Bft)
01.05.2010 07:38 18,9 C 10,1 C 0,2 UV-I 0,2 C 48 % 74 % 6 % 1011,1 hPa 0,0 l/m 2,0 km/h (1 Bft) 0 min 4,0 km/h (1 Bft)
01.05.2010 07:40 18,9 C 10,2 C 0,2 UV-I 0,2 C 48 % 75 % 6 % 1011,1 hPa 0,0 l/m 1,6 km/h (1 Bft) 0 min 0,0 km/h (0 Bft)
01.05.2010 07:42 18,9 C 10,2 C 0,2 UV-I 0,3 C 48 % 75 % 9 % 1011,1 hPa 0,0 l/m 1,6 km/h (1 Bft) 0 min 0,0 km/h (0 Bft)
01.05.2010 07:44 18,9 C 10,3 C 0,2 UV-I 0,3 C 48 % 75 % 9 % 1011,1 hPa 0,0 l/m 1,6 km/h (1 Bft) 0 min 4,0 km/h (1 Bft)
01.05.2010 07:48 18,9 C 10,3 C 0,1 UV-I 0,4 C 48 % 74 % 11 % 1011,1 hPa 0,0 l/m 2,4 km/h (1 Bft) 0 min 9,2 km/h (2 Bft)
01.05.2010 07:50 18,9 C 10,4 C 0,4 UV-I 0,4 C 48 % 74 % 11 % 1011,1 hPa 0,0 l/m 3,6 km/h (1 Bft) 0 min 9,2 km/h (2 Bft)
01.05.2010 07:52 18,9 C 10,5 C 0,4 UV-I 0,3 C 48 % 74 % 9 % 1011,4 hPa 0,0 l/m 4,0 km/h (1 Bft) 0 min 8,8 km/h (2 Bft)
01.05.2010 07:54 18,9 C 10,4 C 0,4 UV-I 0,5 C 48 % 74 % 14 % 1011,4 hPa 0,0 l/m 4,0 km/h (1 Bft) 0 min 6,0 km/h (2 Bft)
01.05.2010 07:56 18,9 C 10,4 C 0,4 UV-I 0,6 C 48 % 73 % 17 % 1011,4 hPa 0,0 l/m 4,4 km/h (1 Bft) 0 min 0,0 km/h (0 Bft)
01.05.2010 07:58 18,9 C 10,5 C 0,4 UV-I 0,5 C 48 % 73 % 14 % 1011,4 hPa 0,0 l/m 4,4 km/h (1 Bft) 0 min 16,9 km/h (3 Bft)
01.05.2010 08:00 19,0 C 10,5 C 0,6 UV-I 0,6 C 48 % 73 % 17 % 1011,4 hPa 0,0 l/m 4,4 km/h (1 Bft) 0 min 14,5 km/h (3 Bft)
01.05.2010 08:02 18,9 C 10,5 C 0,6 UV-I 0,6 C 48 % 73 % 17 % 1011,4 hPa 0,0 l/m 4,4 km/h (1 Bft) 0 min 5,6 km/h (1 Bft)
01.05.2010 08:04 19,0 C 10,5 C 0,6 UV-I 0,6 C 48 % 73 % 17 % 1011,4 hPa 0,0 l/m 4,4 km/h (1 Bft) 0 min 8,4 km/h (2 Bft)
01.05.2010 08:06 19,0 C 10,7 C 0,6 UV-I 0,5 C 48 % 73 % 14 % 1011,4 hPa 0,0 l/m 4,0 km/h (1 Bft) 0 min 0,0 km/h (0 Bft)
01.05.2010 08:10 18,9 C 10,7 C 0,7 UV-I 0,5 C 48 % 73 % 14 % 1011,4 hPa 0,0 l/m 3,6 km/h (1 Bft) 0 min 7,6 km/h (2 Bft)
01.05.2010 08:12 18,9 C 10,7 C 0,7 UV-I 0,5 C 48 % 73 % 14 % 1011,7 hPa 0,0 l/m 3,2 km/h (1 Bft) 0 min 0,0 km/h (0 Bft)
01.05.2010 08:14 18,9 C 10,8 C 0,7 UV-I 0,5 C 48 % 73 % 14 % 1011,7 hPa 0,0 l/m 2,8 km/h (1 Bft) 0 min 4,8 km/h (1 Bft)
01.05.2010 08:16 18,9 C 10,8 C 0,8 UV-I 0,5 C 48 % 73 % 14 % 1011,7 hPa 0,0 l/m 4,0 km/h (1 Bft) 0 min 13,3 km/h (3 Bft)
01.05.2010 08:18 18,9 C 10,8 C 0,8 UV-I 0,6 C 48 % 73 % 17 % 1011,7 hPa 0,0 l/m 3,6 km/h (1 Bft) 0 min 0,0 km/h (0 Bft)
01.05.2010 08:20 18,9 C 10,8 C 0,8 UV-I 0,6 C 48 % 73 % 17 % 1011,7 hPa 0,0 l/m 4,4 km/h (1 Bft) 0 min 12,4 km/h (3 Bft)
01.05.2010 08:22 19,0 C 10,9 C 0,8 UV-I 0,6 C 48 % 72 % 17 % 1011,7 hPa 0,0 l/m 4,8 km/h (1 Bft) 0 min 8,8 km/h (2 Bft)
01.05.2010 08:24 18,9 C 10,9 C 0,8 UV-I 0,6 C 47 % 72 % 17 % 1011,7 hPa 0,0 l/m 5,2 km/h (1 Bft) 0 min 0,0 km/h (0 Bft)
01.05.2010 08:26 18,9 C 11,0 C 1,0 UV-I 0,7 C 48 % 72 % 20 % 1011,7 hPa 0,0 l/m 5,2 km/h (1 Bft) 0 min 7,2 km/h (2 Bft)
01.05.2010 08:28 19,0 C 11,1 C 1,0 UV-I 0,8 C 48 % 72 % 23 % 1011,7 hPa 0,0 l/m 5,2 km/h (1 Bft) 0 min 8,4 km/h (2 Bft)
01.05.2010 08:30 19,0 C 11,0 C 0,9 UV-I 1,1 C 47 % 72 % 31 % 1011,7 hPa 0,0 l/m 6,0 km/h (2 Bft) 0 min 22,5 km/h (4 Bft)
01.05.2010 08:32 19,0 C 11,1 C 0,9 UV-I 1,1 C 47 % 72 % 31 % 1011,2 hPa 0,0 l/m 4,8 km/h (1 Bft) 0 min 5,2 km/h (1 Bft)
01.05.2010 08:34 19,0 C 11,2 C 0,9 UV-I 1,1 C 47 % 72 % 31 % 1011,2 hPa 0,0 l/m 5,6 km/h (1 Bft) 0 min 16,1 km/h (3 Bft)
01.05.2010 08:36 19,0 C 11,2 C 0,5 UV-I 1,2 C 48 % 72 % 34 % 1011,2 hPa 0,0 l/m 5,6 km/h (1 Bft) 0 min 10,8 km/h (2 Bft)
01.05.2010 08:38 19,0 C 11,3 C 0,5 UV-I 1,2 C 47 % 71 % 34 % 1011,2 hPa 0,0 l/m 6,0 km/h (2 Bft) 0 min 6,8 km/h (2 Bft)
01.05.2010 08:40 19,0 C 11,3 C 0,5 UV-I 1,3 C 47 % 71 % 37 % 1011,2 hPa 0,0 l/m 5,2 km/h (1 Bft) 0 min 6,8 km/h (2 Bft)
01.05.2010 08:42 19,0 C 11,3 C 0,5 UV-I 1,3 C 47 % 71 % 37 % 1011,2 hPa 0,0 l/m 6,0 km/h (2 Bft) 0 min 22,9 km/h (4 Bft)
01.05.2010 08:44 19,0 C 11,5 C 0,5 UV-I 1,1 C 47 % 71 % 31 % 1011,2 hPa 0,0 l/m 6,4 km/h (2 Bft) 0 min 10,0 km/h (2 Bft)
01.05.2010 08:46 19,0 C 11,4 C 0,6 UV-I 1,3 C 47 % 71 % 37 % 1011,2 hPa 0,0 l/m 5,6 km/h (1 Bft) 0 min 4,8 km/h (1 Bft)
01.05.2010 08:48 19,0 C 11,5 C 0,6 UV-I 1,2 C 47 % 71 % 34 % 1011,2 hPa 0,0 l/m 5,6 km/h (1 Bft) 0 min 9,6 km/h (2 Bft)
01.05.2010 08:50 19,1 C 11,5 C 0,8 UV-I 1,3 C 47 % 71 % 37 % 1011,2 hPa 0,0 l/m 6,4 km/h (2 Bft) 0 min 22,9 km/h (4 Bft)
01.05.2010 08:52 19,1 C 11,7 C 0,8 UV-I 1,1 C 47 % 71 % 31 % 1011,7 hPa 0,0 l/m 6,4 km/h (2 Bft) 0 min 8,0 km/h (2 Bft)
01.05.2010 08:56 19,1 C 11,8 C 1,0 UV-I 1,2 C 47 % 71 % 34 % 1011,7 hPa 0,0 l/m 6,8 km/h (2 Bft) 0 min 14,9 km/h (3 Bft)
01.05.2010 08:58 19,1 C 11,8 C 1,0 UV-I 1,2 C 47 % 71 % 34 % 1011,7 hPa 0,0 l/m 7,6 km/h (2 Bft) 0 min 8,0 km/h (2 Bft)
01.05.2010 09:02 19,1 C 11,9 C 0,8 UV-I 1,3 C 47 % 71 % 37 % 1011,7 hPa 0,0 l/m 7,6 km/h (2 Bft) 0 min 6,0 km/h (2 Bft)
01.05.2010 09:04 19,1 C 11,8 C 0,8 UV-I 1,4 C 47 % 71 % 40 % 1011,7 hPa 0,0 l/m 7,6 km/h (2 Bft) 0 min 14,5 km/h (3 Bft)
01.05.2010 09:06 19,1 C 11,9 C 1,1 UV-I 1,3 C 47 % 71 % 37 % 1011,7 hPa 0,0 l/m 7,6 km/h (2 Bft) 0 min 6,0 km/h (2 Bft)
01.05.2010 09:08 19,1 C 12,1 C 1,1 UV-I 1,2 C 47 % 71 % 34 % 1011,7 hPa 0,0 l/m 7,6 km/h (2 Bft) 0 min 5,6 km/h (1 Bft)
01.05.2010 09:10 19,1 C 12,1 C 0,9 UV-I 1,3 C 47 % 71 % 37 % 1011,7 hPa 0,0 l/m 8,4 km/h (2 Bft) 0 min 20,5 km/h (4 Bft)
01.05.2010 09:12 19,1 C 12,0 C 0,9 UV-I 1,5 C 47 % 71 % 43 % 1012,1 hPa 0,0 l/m 8,8 km/h (2 Bft) 0 min 12,8 km/h (3 Bft)
01.05.2010 09:14 19,2 C 12,1 C 0,9 UV-I 1,6 C 47 % 71 % 46 % 1012,1 hPa 0,0 l/m 9,6 km/h (2 Bft) 0 min 17,7 km/h (3 Bft)
01.05.2010 09:16 19,1 C 12,3 C 1,1 UV-I 1,4 C 47 % 71 % 40 % 1012,1 hPa 0,0 l/m 9,6 km/h (2 Bft) 0 min 17,3 km/h (3 Bft)
01.05.2010 09:18 19,1 C 12,3 C 1,1 UV-I 1,4 C 47 % 70 % 40 % 1012,1 hPa 0,0 l/m 10,4 km/h (2 Bft) 0 min 24,1 km/h (4 Bft)
01.05.2010 09:20 19,2 C 12,4 C 1,1 UV-I 1,3 C 47 % 70 % 37 % 1012,1 hPa 0,0 l/m 11,2 km/h (2 Bft) 0 min 26,9 km/h (4 Bft)
01.05.2010 09:22 19,2 C 12,4 C 1,1 UV-I 1,2 C 47 % 69 % 34 % 1012,1 hPa 0,0 l/m 11,2 km/h (2 Bft) 0 min 10,8 km/h (2 Bft)
01.05.2010 09:24 19,2 C 12,4 C 1,1 UV-I 1,1 C 47 % 69 % 31 % 1012,1 hPa 0,0 l/m 10,8 km/h (2 Bft) 0 min 8,4 km/h (2 Bft)
01.05.2010 09:26 19,1 C 12,4 C 0,6 UV-I 1,0 C 47 % 69 % 29 % 1012,1 hPa 0,0 l/m 10,4 km/h (2 Bft) 0 min 6,4 km/h (2 Bft)
01.05.2010 09:28 19,1 C 12,3 C 0,6 UV-I 1,0 C 47 % 70 % 29 % 1012,1 hPa 0,0 l/m 9,6 km/h (2 Bft) 0 min 14,9 km/h (3 Bft)
01.05.2010 09:30 19,2 C 12,3 C 0,9 UV-I 0,9 C 47 % 69 % 26 % 1012,1 hPa 0,0 l/m 8,4 km/h (2 Bft) 0 min 12,0 km/h (2 Bft)
01.05.2010 09:32 19,2 C 12,3 C 0,9 UV-I 0,8 C 47 % 69 % 23 % 1011,8 hPa 0,0 l/m 7,2 km/h (2 Bft) 0 min 8,0 km/h (2 Bft)
01.05.2010 09:34 19,1 C 12,4 C 0,9 UV-I 0,7 C 47 % 69 % 20 % 1011,8 hPa 0,0 l/m 7,2 km/h (2 Bft) 0 min 12,0 km/h (2 Bft)
01.05.2010 09:36 19,1 C 12,5 C 1,0 UV-I 0,6 C 47 % 69 % 17 % 1011,8 hPa 0,0 l/m 7,6 km/h (2 Bft) 0 min 6,4 km/h (2 Bft)
01.05.2010 09:38 19,1 C 12,5 C 1,0 UV-I 0,5 C 47 % 69 % 14 % 1011,8 hPa 0,0 l/m 8,4 km/h (2 Bft) 0 min 8,4 km/h (2 Bft)
01.05.2010 09:42 19,1 C 12,5 C 0,9 UV-I 0,5 C 47 % 70 % 14 % 1011,8 hPa 0,0 l/m 7,6 km/h (2 Bft) 0 min 22,5 km/h (4 Bft)
01.05.2010 09:44 19,1 C 12,7 C 0,9 UV-I 1,0 C 47 % 70 % 29 % 1011,8 hPa 0,0 l/m 7,6 km/h (2 Bft) 0 min 4,8 km/h (1 Bft)
01.05.2010 09:46 19,1 C 12,7 C 1,1 UV-I 2,5 C 47 % 69 % 71 % 1011,8 hPa 0,0 l/m 6,8 km/h (2 Bft) 0 min 7,2 km/h (2 Bft)
01.05.2010 09:48 19,1 C 12,7 C 1,1 UV-I 3,4 C 47 % 69 % 97 % 1011,8 hPa 0,0 l/m 8,0 km/h (2 Bft) 2 min 20,9 km/h (4 Bft)
01.05.2010 09:50 19,1 C 12,7 C 1,0 UV-I 4,3 C 47 % 69 % 100 % 1011,8 hPa 0,0 l/m 8,4 km/h (2 Bft) 2 min 16,1 km/h (3 Bft)
01.05.2010 09:52 19,1 C 12,7 C 1,0 UV-I 4,9 C 47 % 69 % 100 % 1011,4 hPa 0,0 l/m 9,2 km/h (2 Bft) 2 min 12,8 km/h (3 Bft)
01.05.2010 09:56 19,1 C 12,8 C 0,9 UV-I 5,4 C 47 % 69 % 100 % 1011,4 hPa 0,0 l/m 10,0 km/h (2 Bft) 2 min 6,4 km/h (2 Bft)
01.05.2010 09:58 19,0 C 12,9 C 0,9 UV-I 5,8 C 47 % 69 % 100 % 1011,4 hPa 0,0 l/m 9,2 km/h (2 Bft) 2 min 7,6 km/h (2 Bft)
01.05.2010 10:02 19,0 C 12,9 C 1,4 UV-I 6,5 C 48 % 68 % 100 % 1011,4 hPa 0,0 l/m 8,8 km/h (2 Bft) 2 min 14,9 km/h (3 Bft)
01.05.2010 10:04 19,1 C 13,1 C 1,4 UV-I 6,4 C 48 % 67 % 100 % 1011,4 hPa 0,0 l/m 8,8 km/h (2 Bft) 2 min 21,3 km/h (4 Bft)
01.05.2010 10:06 19,0 C 13,1 C 1,2 UV-I 6,4 C 48 % 67 % 100 % 1011,4 hPa 0,0 l/m 8,8 km/h (2 Bft) 2 min 11,6 km/h (2 Bft)
01.05.2010 10:08 19,0 C 13,1 C 1,2 UV-I 6,5 C 48 % 67 % 100 % 1011,4 hPa 0,0 l/m 9,6 km/h (2 Bft) 2 min 16,1 km/h (3 Bft)
01.05.2010 10:10 19,0 C 13,2 C 1,2 UV-I 5,9 C 48 % 67 % 100 % 1011,4 hPa 0,0 l/m 10,8 km/h (2 Bft) 2 min 31,3 km/h (5 Bft)
01.05.2010 10:12 19,1 C 13,3 C 1,2 UV-I 5,6 C 48 % 67 % 100 % 1011,4 hPa 0,0 l/m 10,8 km/h (2 Bft) 2 min 8,4 km/h (2 Bft)
01.05.2010 10:14 19,0 C 13,3 C 1,2 UV-I 6,2 C 48 % 67 % 100 % 1011,4 hPa 0,0 l/m 9,6 km/h (2 Bft) 2 min 6,0 km/h (2 Bft)
01.05.2010 10:16 19,0 C 13,7 C 1,3 UV-I 6,2 C 48 % 72 % 100 % 1011,4 hPa 0,0 l/m 8,4 km/h (2 Bft) 2 min 14,5 km/h (3 Bft)
01.05.2010 10:18 19,1 C 15,7 C 1,3 UV-I 4,1 C 48 % 73 % 100 % 1011,4 hPa 0,0 l/m 8,0 km/h (2 Bft) 2 min 10,0 km/h (2 Bft)
01.05.2010 10:20 19,0 C 16,7 C 1,3 UV-I 2,7 C 48 % 69 % 77 % 1011,4 hPa 0,0 l/m 7,6 km/h (2 Bft) 0 min 11,2 km/h (2 Bft)
01.05.2010 10:24 19,1 C 17,6 C 1,3 UV-I 2,0 C 48 % 58 % 57 % 1011,4 hPa 0,0 l/m 8,8 km/h (2 Bft) 0 min 16,9 km/h (3 Bft)
01.05.2010 10:26 19,0 C 17,6 C 1,3 UV-I 2,1 C 48 % 57 % 60 % 1011,4 hPa 0,0 l/m 8,8 km/h (2 Bft) 0 min 5,2 km/h (1 Bft)
01.05.2010 10:28 19,1 C 17,2 C 1,3 UV-I 3,0 C 48 % 56 % 86 % 1011,4 hPa 0,0 l/m 9,6 km/h (2 Bft) 2 min 21,3 km/h (4 Bft)
01.05.2010 10:30 19,0 C 16,8 C 1,4 UV-I 3,2 C 48 % 54 % 91 % 1011,4 hPa 0,0 l/m 10,0 km/h (2 Bft) 2 min 14,5 km/h (3 Bft)
01.05.2010 10:32 19,0 C 16,3 C 1,4 UV-I 3,9 C 48 % 54 % 100 % 1011,4 hPa 0,0 l/m 10,4 km/h (2 Bft) 2 min 15,3 km/h (3 Bft)
01.05.2010 10:34 19,0 C 16,0 C 1,4 UV-I 4,4 C 48 % 55 % 100 % 1011,4 hPa 0,0 l/m 9,2 km/h (2 Bft) 2 min 13,7 km/h (3 Bft)
01.05.2010 10:36 19,0 C 15,9 C 1,7 UV-I 4,8 C 48 % 56 % 100 % 1011,4 hPa 0,0 l/m 9,6 km/h (2 Bft) 2 min 10,8 km/h (2 Bft)
01.05.2010 10:38 19,0 C 15,7 C 1,7 UV-I 5,2 C 48 % 56 % 100 % 1011,4 hPa 0,0 l/m 10,4 km/h (2 Bft) 2 min 8,4 km/h (2 Bft)
01.05.2010 10:40 19,1 C 15,6 C 0,5 UV-I 5,1 C 48 % 56 % 100 % 1011,4 hPa 0,0 l/m 9,6 km/h (2 Bft) 2 min 11,6 km/h (2 Bft)
01.05.2010 10:42 19,0 C 15,5 C 0,5 UV-I 5,1 C 48 % 56 % 100 % 1011,4 hPa 0,0 l/m 9,2 km/h (2 Bft) 2 min 13,3 km/h (3 Bft)
01.05.2010 10:44 19,0 C 15,5 C 0,5 UV-I 5,1 C 48 % 57 % 100 % 1011,4 hPa 0,0 l/m 9,2 km/h (2 Bft) 2 min 8,0 km/h (2 Bft)
01.05.2010 10:46 19,1 C 15,4 C 0,0 UV-I 5,5 C 48 % 57 % 100 % 1011,4 hPa 0,0 l/m 10,0 km/h (2 Bft) 2 min 25,7 km/h (4 Bft)
01.05.2010 10:48 19,1 C 15,5 C 0,0 UV-I 5,4 C 48 % 56 % 100 % 1011,4 hPa 0,0 l/m 10,0 km/h (2 Bft) 2 min 18,5 km/h (3 Bft)
01.05.2010 10:50 19,1 C 15,6 C 2,3 UV-I 4,9 C 48 % 57 % 100 % 1011,4 hPa 0,0 l/m 10,0 km/h (2 Bft) 2 min 31,7 km/h (5 Bft)
01.05.2010 10:52 19,1 C 15,6 C 2,3 UV-I 5,3 C 48 % 58 % 100 % 1011,2 hPa 0,0 l/m 8,8 km/h (2 Bft) 2 min 8,4 km/h (2 Bft)
01.05.2010 10:54 19,1 C 15,7 C 2,3 UV-I 5,6 C 47 % 57 % 100 % 1011,2 hPa 0,0 l/m 8,0 km/h (2 Bft) 2 min 10,8 km/h (2 Bft)
01.05.2010 10:56 19,1 C 15,9 C 4,3 UV-I 5,7 C 47 % 56 % 100 % 1011,2 hPa 0,0 l/m 8,8 km/h (2 Bft) 2 min 11,2 km/h (2 Bft)
01.05.2010 10:58 19,1 C 15,9 C 4,3 UV-I 5,7 C 47 % 56 % 100 % 1011,2 hPa 0,0 l/m 7,6 km/h (2 Bft) 2 min 7,6 km/h (2 Bft)
01.05.2010 11:00 19,1 C 16,0 C 6,5 UV-I 5,7 C 47 % 57 % 100 % 1011,2 hPa 0,0 l/m 7,2 km/h (2 Bft) 2 min 8,8 km/h (2 Bft)
01.05.2010 11:02 19,1 C 16,0 C 6,5 UV-I 6,1 C 47 % 57 % 100 % 1011,2 hPa 0,0 l/m 7,6 km/h (2 Bft) 2 min 12,0 km/h (2 Bft)
01.05.2010 11:04 19,1 C 16,1 C 6,5 UV-I 6,2 C 47 % 57 % 100 % 1011,2 hPa 0,0 l/m 7,6 km/h (2 Bft) 2 min 5,6 km/h (1 Bft)
01.05.2010 11:06 19,1 C 16,3 C 14,3 UV-I 6,2 C 47 % 55 % 100 % 1011,2 hPa 0,0 l/m 8,0 km/h (2 Bft) 2 min 16,1 km/h (3 Bft)
01.05.2010 11:08 19,1 C 16,3 C 14,3 UV-I 6,2 C 47 % 56 % 100 % 1011,2 hPa 0,0 l/m 7,2 km/h (2 Bft) 2 min 0,0 km/h (0 Bft)
01.05.2010 11:10 19,1 C 16,3 C 10,6 UV-I 6,1 C 47 % 54 % 100 % 1011,2 hPa 0,0 l/m 7,6 km/h (2 Bft) 2 min 6,8 km/h (2 Bft)
01.05.2010 11:12 19,1 C 16,3 C 10,6 UV-I 5,8 C 47 % 55 % 100 % 1011,1 hPa 0,0 l/m 7,2 km/h (2 Bft) 2 min 6,8 km/h (2 Bft)
01.05.2010 11:14 19,1 C 16,3 C 10,6 UV-I 6,0 C 47 % 55 % 100 % 1011,1 hPa 0,0 l/m 7,2 km/h (2 Bft) 2 min 7,2 km/h (2 Bft)
01.05.2010 11:16 19,1 C 16,4 C 14,4 UV-I 6,1 C 47 % 56 % 100 % 1011,1 hPa 0,0 l/m 7,6 km/h (2 Bft) 2 min 10,8 km/h (2 Bft)
01.05.2010 11:18 19,1 C 16,5 C 14,4 UV-I 5,9 C 47 % 55 % 100 % 1011,1 hPa 0,0 l/m 7,2 km/h (2 Bft) 2 min 12,0 km/h (2 Bft)
01.05.2010 11:20 19,2 C 16,6 C 14,6 UV-I 6,1 C 47 % 55 % 100 % 1011,1 hPa 0,0 l/m 7,2 km/h (2 Bft) 2 min 11,2 km/h (2 Bft)
01.05.2010 11:22 19,2 C 16,7 C 14,6 UV-I 6,1 C 47 % 54 % 100 % 1011,1 hPa 0,0 l/m 8,0 km/h (2 Bft) 2 min 14,1 km/h (3 Bft)
01.05.2010 11:24 19,2 C 16,7 C 14,6 UV-I 6,1 C 47 % 54 % 100 % 1011,1 hPa 0,0 l/m 7,6 km/h (2 Bft) 2 min 9,2 km/h (2 Bft)
01.05.2010 11:26 19,2 C 16,7 C 12,9 UV-I 6,2 C 47 % 54 % 100 % 1011,1 hPa 0,0 l/m 8,4 km/h (2 Bft) 2 min 13,3 km/h (3 Bft)
01.05.2010 11:28 19,2 C 16,6 C 12,9 UV-I 6,2 C 47 % 54 % 100 % 1011,1 hPa 0,0 l/m 8,8 km/h (2 Bft) 2 min 12,0 km/h (2 Bft)
01.05.2010 11:32 19,2 C 16,7 C 12,9 UV-I 6,1 C 47 % 53 % 100 % 1011,2 hPa 0,0 l/m 8,8 km/h (2 Bft) 2 min 23,3 km/h (4 Bft)
01.05.2010 11:33 19,2 C 16,6 C 12,9 UV-I 6,0 C 47 % 53 % 100 % 1011,2 hPa 0,0 l/m 10,4 km/h (2 Bft) 1 min 16,9 km/h (3 Bft)
01.05.2010 11:38 19,2 C 16,5 C 11,0 UV-I 5,1 C 46 % 53 % 100 % 1011,2 hPa 0,0 l/m 10,4 km/h (2 Bft) 2 min 10,8 km/h (2 Bft)
01.05.2010 11:39 19,2 C 16,5 C 11,0 UV-I 5,1 C 46 % 53 % 100 % 1011,2 hPa 0,0 l/m 10,4 km/h (2 Bft) 1 min 10,8 km/h (2 Bft)
01.05.2010 11:42 19,2 C 16,7 C 11,0 UV-I 5,3 C 46 % 54 % 100 % 1011,2 hPa 0,0 l/m 10,8 km/h (2 Bft) 2 min 8,4 km/h (2 Bft)
01.05.2010 11:44 19,3 C 16,7 C 11,0 UV-I 5,6 C 46 % 53 % 100 % 1011,2 hPa 0,0 l/m 8,8 km/h (2 Bft) 2 min 16,1 km/h (3 Bft)
01.05.2010 11:46 19,2 C 16,7 C 10,7 UV-I 5,5 C 46 % 53 % 100 % 1011,2 hPa 0,0 l/m 8,0 km/h (2 Bft) 2 min 13,3 km/h (3 Bft)
01.05.2010 11:48 19,2 C 16,6 C 10,7 UV-I 5,2 C 46 % 52 % 100 % 1011,2 hPa 0,0 l/m 8,0 km/h (2 Bft) 2 min 10,4 km/h (2 Bft)
01.05.2010 11:50 19,2 C 16,5 C 4,4 UV-I 4,5 C 46 % 52 % 100 % 1011,2 hPa 0,0 l/m 8,4 km/h (2 Bft) 2 min 10,0 km/h (2 Bft)
01.05.2010 11:52 19,3 C 16,5 C 4,4 UV-I 3,6 C 46 % 52 % 100 % 1010,9 hPa 0,0 l/m 9,2 km/h (2 Bft) 2 min 22,9 km/h (4 Bft)
01.05.2010 11:54 19,3 C 16,4 C 4,4 UV-I 3,6 C 46 % 52 % 100 % 1010,9 hPa 0,0 l/m 8,8 km/h (2 Bft) 2 min 9,2 km/h (2 Bft)
01.05.2010 11:56 19,2 C 16,5 C 13,4 UV-I 4,1 C 46 % 52 % 100 % 1010,9 hPa 0,0 l/m 8,8 km/h (2 Bft) 2 min 10,8 km/h (2 Bft)
01.05.2010 11:58 19,3 C 16,7 C 13,4 UV-I 4,7 C 46 % 52 % 100 % 1010,9 hPa 0,0 l/m 8,4 km/h (2 Bft) 2 min 8,4 km/h (2 Bft)
01.05.2010 12:00 19,2 C 16,8 C 11,1 UV-I 5,2 C 46 % 53 % 100 % 1010,9 hPa 0,0 l/m 8,4 km/h (2 Bft) 2 min 9,2 km/h (2 Bft)
01.05.2010 12:02 19,2 C 16,9 C 11,1 UV-I 5,4 C 46 % 53 % 100 % 1010,9 hPa 0,0 l/m 8,4 km/h (2 Bft) 2 min 11,6 km/h (2 Bft)
01.05.2010 12:04 19,4 C 16,9 C 11,1 UV-I 5,4 C 46 % 52 % 100 % 1010,9 hPa 0,0 l/m 8,4 km/h (2 Bft) 2 min 11,6 km/h (2 Bft)
01.05.2010 12:06 19,4 C 16,9 C 11,1 UV-I 5,1 C 46 % 52 % 100 % 1010,9 hPa 0,0 l/m 7,2 km/h (2 Bft) 2 min 4,8 km/h (1 Bft)
01.05.2010 12:08 19,4 C 16,8 C 11,1 UV-I 4,4 C 46 % 51 % 100 % 1010,9 hPa 0,0 l/m 6,4 km/h (2 Bft) 2 min 6,8 km/h (2 Bft)
01.05.2010 12:10 19,4 C 16,7 C 4,4 UV-I 3,8 C 46 % 51 % 100 % 1010,9 hPa 0,0 l/m 6,0 km/h (2 Bft) 2 min 12,4 km/h (3 Bft)
01.05.2010 12:12 19,4 C 16,7 C 4,4 UV-I 3,2 C 46 % 51 % 91 % 1010,8 hPa 0,0 l/m 6,0 km/h (2 Bft) 2 min 13,3 km/h (3 Bft)
01.05.2010 12:14 19,4 C 16,6 C 4,4 UV-I 3,2 C 46 % 52 % 91 % 1010,8 hPa 0,0 l/m 5,6 km/h (1 Bft) 2 min 5,6 km/h (1 Bft)
01.05.2010 12:16 19,4 C 16,7 C 9,3 UV-I 3,7 C 46 % 51 % 100 % 1010,8 hPa 0,0 l/m 6,4 km/h (2 Bft) 2 min 17,3 km/h (3 Bft)
01.05.2010 12:18 19,4 C 16,8 C 9,3 UV-I 4,1 C 46 % 52 % 100 % 1010,8 hPa 0,0 l/m 8,0 km/h (2 Bft) 2 min 10,4 km/h (2 Bft)
01.05.2010 12:20 19,5 C 16,9 C 10,4 UV-I 4,3 C 45 % 51 % 100 % 1010,8 hPa 0,0 l/m 8,4 km/h (2 Bft) 2 min 11,6 km/h (2 Bft)
01.05.2010 12:22 19,5 C 17,1 C 10,4 UV-I 4,7 C 45 % 52 % 100 % 1010,8 hPa 0,0 l/m 8,8 km/h (2 Bft) 2 min 9,6 km/h (2 Bft)
01.05.2010 12:24 19,5 C 17,2 C 10,4 UV-I 5,2 C 45 % 51 % 100 % 1010,8 hPa 0,0 l/m 8,8 km/h (2 Bft) 2 min 19,7 km/h (3 Bft)
01.05.2010 12:26 19,5 C 17,4 C 11,1 UV-I 5,5 C 45 % 50 % 100 % 1010,8 hPa 0,0 l/m 10,4 km/h (2 Bft) 2 min 13,3 km/h (3 Bft)
01.05.2010 12:28 19,5 C 17,6 C 11,1 UV-I 5,5 C 45 % 49 % 100 % 1010,8 hPa 0,0 l/m 10,0 km/h (2 Bft) 2 min 11,6 km/h (2 Bft)
01.05.2010 12:30 19,6 C 17,7 C 8,7 UV-I 5,2 C 45 % 49 % 100 % 1010,8 hPa 0,0 l/m 10,4 km/h (2 Bft) 2 min 11,2 km/h (2 Bft)
01.05.2010 12:32 19,6 C 17,8 C 8,7 UV-I 5,1 C 45 % 50 % 100 % 1010,8 hPa 0,0 l/m 10,0 km/h (2 Bft) 2 min 14,5 km/h (3 Bft)
01.05.2010 12:34 19,6 C 17,9 C 8,7 UV-I 5,4 C 45 % 49 % 100 % 1010,8 hPa 0,0 l/m 9,6 km/h (2 Bft) 2 min 7,2 km/h (2 Bft)
01.05.2010 12:36 19,6 C 17,9 C 9,1 UV-I 5,8 C 45 % 49 % 100 % 1010,8 hPa 0,0 l/m 8,0 km/h (2 Bft) 2 min 15,3 km/h (3 Bft)
01.05.2010 12:38 19,6 C 17,9 C 9,1 UV-I 5,6 C 45 % 47 % 100 % 1010,8 hPa 0,0 l/m 8,4 km/h (2 Bft) 2 min 11,6 km/h (2 Bft)
01.05.2010 12:40 19,7 C 17,6 C 5,8 UV-I 5,1 C 45 % 48 % 100 % 1010,8 hPa 0,0 l/m 8,4 km/h (2 Bft) 2 min 5,6 km/h (1 Bft)
01.05.2010 12:42 19,7 C 17,6 C 5,8 UV-I 4,4 C 45 % 47 % 100 % 1010,8 hPa 0,0 l/m 9,6 km/h (2 Bft) 2 min 28,5 km/h (4 Bft)
01.05.2010 12:44 19,7 C 17,5 C 5,8 UV-I 4,2 C 44 % 47 % 100 % 1010,8 hPa 0,0 l/m 9,6 km/h (2 Bft) 2 min 17,7 km/h (3 Bft)
01.05.2010 12:46 19,7 C 17,5 C 7,4 UV-I 3,9 C 44 % 48 % 100 % 1010,8 hPa 0,0 l/m 10,4 km/h (2 Bft) 2 min 8,8 km/h (2 Bft)
01.05.2010 12:48 19,7 C 17,6 C 7,4 UV-I 4,1 C 44 % 49 % 100 % 1010,8 hPa 0,0 l/m 10,0 km/h (2 Bft) 2 min 11,2 km/h (2 Bft)
01.05.2010 12:50 19,8 C 17,6 C 7,3 UV-I 4,3 C 44 % 47 % 100 % 1010,8 hPa 0,0 l/m 9,6 km/h (2 Bft) 2 min 15,3 km/h (3 Bft)
01.05.2010 12:52 19,8 C 17,6 C 7,3 UV-I 4,0 C 44 % 47 % 100 % 1010,8 hPa 0,0 l/m 10,4 km/h (2 Bft) 2 min 14,1 km/h (3 Bft)
01.05.2010 12:54 19,8 C 17,6 C 7,3 UV-I 4,1 C 44 % 47 % 100 % 1010,8 hPa 0,0 l/m 9,6 km/h (2 Bft) 2 min 12,4 km/h (3 Bft)
01.05.2010 12:56 19,8 C 17,6 C 7,4 UV-I 3,6 C 44 % 47 % 100 % 1010,8 hPa 0,0 l/m 10,0 km/h (2 Bft) 2 min 12,8 km/h (3 Bft)
01.05.2010 12:58 19,8 C 17,6 C 7,4 UV-I 3,6 C 44 % 47 % 100 % 1010,8 hPa 0,0 l/m 10,8 km/h (2 Bft) 2 min 16,9 km/h (3 Bft)
01.05.2010 13:00 19,8 C 17,7 C 9,5 UV-I 3,7 C 44 % 48 % 100 % 1010,8 hPa 0,0 l/m 10,8 km/h (2 Bft) 2 min 12,0 km/h (2 Bft)
01.05.2010 13:02 19,8 C 17,9 C 9,5 UV-I 4,0 C 43 % 46 % 100 % 1010,8 hPa 0,0 l/m 10,8 km/h (2 Bft) 2 min 14,9 km/h (3 Bft)
01.05.2010 13:04 19,8 C 17,8 C 9,5 UV-I 4,4 C 44 % 47 % 100 % 1010,8 hPa 0,0 l/m 11,2 km/h (2 Bft) 2 min 16,1 km/h (3 Bft)
01.05.2010 13:06 19,9 C 18,0 C 9,5 UV-I 4,6 C 43 % 47 % 100 % 1010,8 hPa 0,0 l/m 10,4 km/h (2 Bft) 2 min 8,4 km/h (2 Bft)
01.05.2010 13:08 19,9 C 18,0 C 9,5 UV-I 5,1 C 43 % 46 % 100 % 1010,8 hPa 0,0 l/m 10,4 km/h (2 Bft) 2 min 7,2 km/h (2 Bft)
01.05.2010 13:10 19,9 C 18,2 C 9,8 UV-I 5,2 C 43 % 46 % 100 % 1010,8 hPa 0,0 l/m 10,4 km/h (2 Bft) 2 min 23,3 km/h (4 Bft)
01.05.2010 13:12 19,9 C 18,4 C 9,8 UV-I 5,2 C 43 % 43 % 100 % 1010,8 hPa 0,0 l/m 10,8 km/h (2 Bft) 2 min 29,3 km/h (5 Bft)
01.05.2010 13:14 19,9 C 18,5 C 9,8 UV-I 5,1 C 43 % 42 % 100 % 1010,8 hPa 0,0 l/m 11,2 km/h (2 Bft) 2 min 14,5 km/h (3 Bft)
01.05.2010 13:16 20,0 C 18,5 C 10,0 UV-I 5,3 C 43 % 42 % 100 % 1010,8 hPa 0,0 l/m 11,2 km/h (2 Bft) 2 min 16,5 km/h (3 Bft)
01.05.2010 13:18 20,0 C 18,5 C 10,0 UV-I 5,5 C 43 % 43 % 100 % 1010,8 hPa 0,0 l/m 11,2 km/h (2 Bft) 2 min 12,4 km/h (3 Bft)
01.05.2010 13:20 20,0 C 18,6 C 8,8 UV-I 5,1 C 43 % 43 % 100 % 1010,8 hPa 0,0 l/m 12,0 km/h (2 Bft) 2 min 15,3 km/h (3 Bft)
01.05.2010 13:22 20,1 C 18,6 C 8,8 UV-I 5,1 C 43 % 44 % 100 % 1010,8 hPa 0,0 l/m 12,0 km/h (2 Bft) 2 min 18,9 km/h (3 Bft)
01.05.2010 13:24 20,1 C 18,3 C 8,8 UV-I 5,1 C 43 % 44 % 100 % 1010,8 hPa 0,0 l/m 11,2 km/h (2 Bft) 2 min 28,1 km/h (4 Bft)
01.05.2010 13:26 20,1 C 18,3 C 6,9 UV-I 4,2 C 43 % 45 % 100 % 1010,8 hPa 0,0 l/m 10,8 km/h (2 Bft) 2 min 13,7 km/h (3 Bft)
01.05.2010 13:28 20,2 C 18,3 C 6,9 UV-I 4,2 C 43 % 45 % 100 % 1010,8 hPa 0,0 l/m 11,2 km/h (2 Bft) 2 min 19,7 km/h (3 Bft)
01.05.2010 13:30 20,2 C 18,4 C 9,4 UV-I 4,4 C 42 % 45 % 100 % 1010,8 hPa 0,0 l/m 11,2 km/h (2 Bft) 2 min 14,5 km/h (3 Bft)
01.05.2010 13:32 20,2 C 18,6 C 9,4 UV-I 4,7 C 42 % 45 % 100 % 1010,7 hPa 0,0 l/m 10,0 km/h (2 Bft) 2 min 9,2 km/h (2 Bft)
01.05.2010 13:34 20,2 C 18,7 C 9,4 UV-I 4,9 C 42 % 45 % 100 % 1010,7 hPa 0,0 l/m 9,2 km/h (2 Bft) 2 min 8,4 km/h (2 Bft)
01.05.2010 13:36 20,3 C 18,9 C 8,8 UV-I 5,0 C 42 % 44 % 100 % 1010,7 hPa 0,0 l/m 9,6 km/h (2 Bft) 2 min 20,5 km/h (4 Bft)
01.05.2010 13:38 20,2 C 18,9 C 8,8 UV-I 5,4 C 42 % 45 % 100 % 1010,7 hPa 0,0 l/m 9,2 km/h (2 Bft) 2 min 11,6 km/h (2 Bft)
01.05.2010 13:40 20,4 C 19,1 C 8,7 UV-I 5,5 C 42 % 44 % 100 % 1010,7 hPa 0,0 l/m 9,2 km/h (2 Bft) 2 min 19,7 km/h (3 Bft)
01.05.2010 13:42 20,4 C 19,1 C 8,7 UV-I 5,4 C 42 % 43 % 100 % 1010,7 hPa 0,0 l/m 9,6 km/h (2 Bft) 2 min 8,0 km/h (2 Bft)
01.05.2010 13:44 20,5 C 19,0 C 8,7 UV-I 5,0 C 42 % 44 % 100 % 1010,7 hPa 0,0 l/m 9,2 km/h (2 Bft) 2 min 10,4 km/h (2 Bft)
01.05.2010 13:46 20,5 C 18,9 C 6,2 UV-I 4,8 C 42 % 43 % 100 % 1010,7 hPa 0,0 l/m 9,6 km/h (2 Bft) 2 min 14,1 km/h (3 Bft)
01.05.2010 13:48 20,6 C 18,7 C 6,2 UV-I 4,4 C 42 % 42 % 100 % 1010,7 hPa 0,0 l/m 9,6 km/h (2 Bft) 2 min 8,4 km/h (2 Bft)
01.05.2010 13:50 20,6 C 18,8 C 7,0 UV-I 4,1 C 42 % 42 % 100 % 1010,7 hPa 0,0 l/m 10,0 km/h (2 Bft) 2 min 16,5 km/h (3 Bft)
01.05.2010 13:52 20,6 C 18,8 C 7,0 UV-I 4,3 C 41 % 43 % 100 % 1011,0 hPa 0,0 l/m 9,2 km/h (2 Bft) 2 min 10,0 km/h (2 Bft)
01.05.2010 13:54 20,7 C 18,9 C 7,0 UV-I 4,7 C 41 % 43 % 100 % 1011,0 hPa 0,0 l/m 9,2 km/h (2 Bft) 2 min 11,2 km/h (2 Bft)
01.05.2010 13:56 20,8 C 19,1 C 9,3 UV-I 5,0 C 41 % 43 % 100 % 1011,0 hPa 0,0 l/m 8,4 km/h (2 Bft) 2 min 5,6 km/h (1 Bft)
01.05.2010 13:58 20,8 C 19,1 C 9,3 UV-I 5,0 C 41 % 42 % 100 % 1011,0 hPa 0,0 l/m 8,4 km/h (2 Bft) 2 min 14,9 km/h (3 Bft)
01.05.2010 14:00 20,8 C 19,1 C 7,0 UV-I 4,5 C 41 % 42 % 100 % 1011,0 hPa 0,0 l/m 8,4 km/h (2 Bft) 2 min 20,5 km/h (4 Bft)
01.05.2010 14:02 20,9 C 19,3 C 7,0 UV-I 4,4 C 41 % 43 % 100 % 1011,0 hPa 0,0 l/m 8,4 km/h (2 Bft) 2 min 8,0 km/h (2 Bft)
01.05.2010 14:04 20,9 C 19,3 C 7,0 UV-I 4,6 C 41 % 43 % 100 % 1011,0 hPa 0,0 l/m 8,8 km/h (2 Bft) 2 min 12,0 km/h (2 Bft)
01.05.2010 14:06 21,0 C 19,4 C 9,9 UV-I 4,9 C 41 % 42 % 100 % 1011,0 hPa 0,0 l/m 9,2 km/h (2 Bft) 2 min 11,6 km/h (2 Bft)
01.05.2010 14:08 21,1 C 19,6 C 9,9 UV-I 5,0 C 41 % 42 % 100 % 1011,0 hPa 0,0 l/m 9,6 km/h (2 Bft) 2 min 9,2 km/h (2 Bft)
01.05.2010 14:10 21,1 C 19,6 C 9,4 UV-I 5,3 C 41 % 43 % 100 % 1011,0 hPa 0,0 l/m 9,2 km/h (2 Bft) 2 min 10,8 km/h (2 Bft)
01.05.2010 14:12 21,2 C 19,9 C 9,4 UV-I 5,1 C 41 % 42 % 100 % 1012,6 hPa 0,0 l/m 9,2 km/h (2 Bft) 2 min 10,4 km/h (2 Bft)
01.05.2010 14:14 21,2 C 19,9 C 9,4 UV-I 5,3 C 40 % 42 % 100 % 1012,6 hPa 0,0 l/m 9,2 km/h (2 Bft) 2 min 11,2 km/h (2 Bft)
01.05.2010 14:16 21,3 C 20,0 C 9,0 UV-I 5,3 C 40 % 42 % 100 % 1012,6 hPa 0,0 l/m 9,2 km/h (2 Bft) 2 min 20,9 km/h (4 Bft)
01.05.2010 14:18 21,2 C 20,1 C 9,0 UV-I 5,3 C 40 % 41 % 100 % 1012,6 hPa 0,0 l/m 10,0 km/h (2 Bft) 2 min 36,1 km/h (5 Bft)
01.05.2010 14:20 21,4 C 20,1 C 10,1 UV-I 5,5 C 40 % 41 % 100 % 1012,6 hPa 0,0 l/m 9,6 km/h (2 Bft) 2 min 14,9 km/h (3 Bft)
01.05.2010 14:22 21,5 C 20,0 C 10,1 UV-I 5,8 C 40 % 42 % 100 % 1012,6 hPa 0,0 l/m 10,0 km/h (2 Bft) 2 min 23,3 km/h (4 Bft)
01.05.2010 14:24 21,5 C 20,0 C 10,1 UV-I 5,7 C 40 % 41 % 100 % 1012,6 hPa 0,0 l/m 10,4 km/h (2 Bft) 2 min 12,0 km/h (2 Bft)
01.05.2010 14:26 21,6 C 19,9 C 9,9 UV-I 5,6 C 40 % 42 % 100 % 1012,6 hPa 0,0 l/m 10,4 km/h (2 Bft) 2 min 8,4 km/h (2 Bft)
01.05.2010 14:28 21,6 C 19,9 C 9,9 UV-I 5,6 C 40 % 42 % 100 % 1012,6 hPa 0,0 l/m 10,0 km/h (2 Bft) 2 min 10,8 km/h (2 Bft)
01.05.2010 14:30 21,7 C 20,1 C 9,9 UV-I 5,5 C 39 % 42 % 100 % 1012,6 hPa 0,0 l/m 9,2 km/h (2 Bft) 2 min 10,8 km/h (2 Bft)
01.05.2010 14:32 21,8 C 20,0 C 9,9 UV-I 5,7 C 39 % 42 % 100 % 1013,6 hPa 0,0 l/m 9,2 km/h (2 Bft) 2 min 7,2 km/h (2 Bft)
01.05.2010 14:34 21,8 C 19,9 C 9,9 UV-I 5,5 C 39 % 40 % 100 % 1013,6 hPa 0,0 l/m 8,8 km/h (2 Bft) 2 min 16,5 km/h (3 Bft)
01.05.2010 14:36 21,8 C 19,7 C 6,4 UV-I 4,8 C 39 % 41 % 100 % 1013,6 hPa 0,0 l/m 8,4 km/h (2 Bft) 2 min 9,6 km/h (2 Bft)
01.05.2010 14:38 21,8 C 19,5 C 6,4 UV-I 4,3 C 39 % 41 % 100 % 1013,6 hPa 0,0 l/m 8,8 km/h (2 Bft) 2 min 18,9 km/h (3 Bft)
01.05.2010 14:40 21,9 C 19,2 C 4,2 UV-I 4,0 C 39 % 42 % 100 % 1013,6 hPa 0,0 l/m 8,8 km/h (2 Bft) 2 min 8,4 km/h (2 Bft)
01.05.2010 14:42 21,9 C 18,9 C 4,2 UV-I 3,4 C 39 % 42 % 97 % 1013,6 hPa 0,0 l/m 9,2 km/h (2 Bft) 2 min 9,2 km/h (2 Bft)
01.05.2010 14:44 21,9 C 18,9 C 4,2 UV-I 2,6 C 39 % 42 % 74 % 1013,6 hPa 0,0 l/m 9,2 km/h (2 Bft) 0 min 7,6 km/h (2 Bft)
01.05.2010 14:46 21,9 C 18,7 C 4,4 UV-I 2,3 C 39 % 42 % 66 % 1013,6 hPa 0,0 l/m 8,8 km/h (2 Bft) 0 min 10,4 km/h (2 Bft)
01.05.2010 14:48 21,9 C 18,8 C 4,4 UV-I 2,4 C 39 % 43 % 69 % 1013,6 hPa 0,0 l/m 8,4 km/h (2 Bft) 0 min 8,8 km/h (2 Bft)
01.05.2010 14:50 22,0 C 19,1 C 8,5 UV-I 2,8 C 38 % 43 % 80 % 1013,6 hPa 0,0 l/m 8,0 km/h (2 Bft) 0 min 16,5 km/h (3 Bft)
01.05.2010 14:52 22,0 C 19,2 C 8,5 UV-I 3,3 C 38 % 43 % 94 % 1012,6 hPa 0,0 l/m 7,2 km/h (2 Bft) 2 min 10,0 km/h (2 Bft)
01.05.2010 14:54 22,0 C 19,2 C 8,5 UV-I 3,6 C 38 % 42 % 100 % 1012,6 hPa 0,0 l/m 7,2 km/h (2 Bft) 2 min 9,6 km/h (2 Bft)
01.05.2010 14:56 22,1 C 19,2 C 4,4 UV-I 3,4 C 38 % 40 % 97 % 1012,6 hPa 0,0 l/m 7,2 km/h (2 Bft) 2 min 10,4 km/h (2 Bft)
01.05.2010 14:58 22,1 C 18,9 C 4,4 UV-I 3,1 C 38 % 41 % 89 % 1012,6 hPa 0,0 l/m 8,0 km/h (2 Bft) 2 min 15,7 km/h (3 Bft)
01.05.2010 15:00 22,0 C 18,7 C 3,6 UV-I 2,5 C 38 % 43 % 71 % 1012,6 hPa 0,0 l/m 9,2 km/h (2 Bft) 0 min 8,4 km/h (2 Bft)
01.05.2010 15:02 22,0 C 18,5 C 3,6 UV-I 2,3 C 38 % 43 % 66 % 1012,6 hPa 0,0 l/m 9,2 km/h (2 Bft) 0 min 11,2 km/h (2 Bft)
01.05.2010 15:04 22,1 C 18,7 C 3,6 UV-I 1,8 C 38 % 43 % 51 % 1012,6 hPa 0,0 l/m 10,4 km/h (2 Bft) 0 min 8,8 km/h (2 Bft)
01.05.2010 15:06 22,1 C 18,5 C 5,0 UV-I 2,2 C 38 % 44 % 63 % 1012,6 hPa 0,0 l/m 10,8 km/h (2 Bft) 0 min 14,9 km/h (3 Bft)
01.05.2010 15:08 22,0 C 18,5 C 5,0 UV-I 2,1 C 38 % 43 % 60 % 1012,6 hPa 0,0 l/m 10,4 km/h (2 Bft) 0 min 7,2 km/h (2 Bft)
01.05.2010 15:10 22,0 C 18,4 C 4,1 UV-I 2,0 C 38 % 44 % 57 % 1012,6 hPa 0,0 l/m 9,2 km/h (2 Bft) 0 min 8,8 km/h (2 Bft)
01.05.2010 15:12 22,0 C 18,3 C 4,1 UV-I 2,0 C 38 % 44 % 57 % 1011,9 hPa 0,0 l/m 9,2 km/h (2 Bft) 0 min 7,6 km/h (2 Bft)
01.05.2010 15:14 22,0 C 18,3 C 4,1 UV-I 1,8 C 38 % 44 % 51 % 1011,9 hPa 0,0 l/m 8,4 km/h (2 Bft) 0 min 8,8 km/h (2 Bft)
01.05.2010 15:16 22,0 C 18,3 C 4,1 UV-I 1,6 C 38 % 44 % 46 % 1011,9 hPa 0,0 l/m 8,4 km/h (2 Bft) 0 min 14,1 km/h (3 Bft)
01.05.2010 15:18 22,0 C 18,1 C 4,1 UV-I 1,7 C 38 % 45 % 49 % 1011,9 hPa 0,0 l/m 7,6 km/h (2 Bft) 0 min 4,4 km/h (1 Bft)
01.05.2010 15:20 22,0 C 18,2 C 4,0 UV-I 1,4 C 38 % 45 % 40 % 1011,9 hPa 0,0 l/m 6,4 km/h (2 Bft) 0 min 0,0 km/h (0 Bft)
01.05.2010 15:22 22,0 C 18,3 C 4,0 UV-I 1,4 C 38 % 44 % 40 % 1011,9 hPa 0,0 l/m 6,0 km/h (2 Bft) 0 min 4,8 km/h (1 Bft)
01.05.2010 15:24 22,0 C 18,3 C 4,0 UV-I 1,8 C 38 % 45 % 51 % 1011,9 hPa 0,0 l/m 6,8 km/h (2 Bft) 0 min 10,8 km/h (2 Bft)
01.05.2010 15:26 22,0 C 18,4 C 6,2 UV-I 2,2 C 38 % 43 % 63 % 1011,9 hPa 0,0 l/m 6,4 km/h (2 Bft) 0 min 6,0 km/h (2 Bft)
01.05.2010 15:28 22,0 C 18,4 C 6,2 UV-I 2,3 C 38 % 43 % 66 % 1011,9 hPa 0,0 l/m 6,0 km/h (2 Bft) 0 min 19,7 km/h (3 Bft)
01.05.2010 15:30 22,0 C 18,3 C 4,3 UV-I 2,4 C 38 % 41 % 69 % 1011,9 hPa 0,0 l/m 7,2 km/h (2 Bft) 0 min 14,9 km/h (3 Bft)
01.05.2010 15:32 22,0 C 18,4 C 4,3 UV-I 2,2 C 38 % 43 % 63 % 1011,2 hPa 0,0 l/m 7,6 km/h (2 Bft) 0 min 12,8 km/h (3 Bft)
01.05.2010 15:34 22,0 C 18,5 C 4,3 UV-I 2,1 C 38 % 43 % 60 % 1011,2 hPa 0,0 l/m 7,6 km/h (2 Bft) 0 min 10,4 km/h (2 Bft)
01.05.2010 15:36 22,1 C 18,8 C 7,9 UV-I 2,3 C 38 % 43 % 66 % 1011,2 hPa 0,0 l/m 8,8 km/h (2 Bft) 0 min 16,5 km/h (3 Bft)
01.05.2010 15:38 22,1 C 18,9 C 7,9 UV-I 3,1 C 38 % 43 % 89 % 1011,2 hPa 0,0 l/m 10,0 km/h (2 Bft) 2 min 18,1 km/h (3 Bft)
01.05.2010 15:40 22,2 C 19,1 C 9,8 UV-I 3,6 C 38 % 43 % 100 % 1011,2 hPa 0,0 l/m 10,0 km/h (2 Bft) 2 min 8,4 km/h (2 Bft)
01.05.2010 15:42 22,3 C 19,3 C 9,8 UV-I 4,1 C 38 % 42 % 100 % 1011,2 hPa 0,0 l/m 9,6 km/h (2 Bft) 2 min 13,7 km/h (3 Bft)
01.05.2010 15:44 22,2 C 19,2 C 9,8 UV-I 4,5 C 38 % 42 % 100 % 1011,2 hPa 0,0 l/m 10,0 km/h (2 Bft) 2 min 20,5 km/h (4 Bft)
01.05.2010 15:46 22,4 C 19,3 C 4,8 UV-I 4,2 C 38 % 42 % 100 % 1011,2 hPa 0,0 l/m 9,6 km/h (2 Bft) 2 min 8,4 km/h (2 Bft)
01.05.2010 15:48 22,4 C 19,0 C 4,8 UV-I 3,8 C 37 % 42 % 100 % 1011,2 hPa 0,0 l/m 7,6 km/h (2 Bft) 2 min 4,4 km/h (1 Bft)
01.05.2010 15:50 22,4 C 18,9 C 3,2 UV-I 3,2 C 38 % 41 % 91 % 1011,2 hPa 0,0 l/m 8,0 km/h (2 Bft) 2 min 9,2 km/h (2 Bft)
01.05.2010 15:52 22,4 C 18,8 C 3,2 UV-I 2,8 C 38 % 41 % 80 % 1011,8 hPa 0,0 l/m 8,4 km/h (2 Bft) 0 min 14,1 km/h (3 Bft)
01.05.2010 15:54 22,4 C 19,1 C 3,2 UV-I 2,7 C 38 % 40 % 77 % 1011,8 hPa 0,0 l/m 9,2 km/h (2 Bft) 0 min 14,5 km/h (3 Bft)
01.05.2010 15:56 22,4 C 19,0 C 10,7 UV-I 3,2 C 37 % 41 % 91 % 1011,8 hPa 0,0 l/m 9,6 km/h (2 Bft) 2 min 9,2 km/h (2 Bft)
01.05.2010 15:58 22,5 C 19,3 C 10,7 UV-I 3,4 C 37 % 40 % 97 % 1011,8 hPa 0,0 l/m 10,0 km/h (2 Bft) 2 min 9,6 km/h (2 Bft)
01.05.2010 16:00 22,5 C 19,3 C 11,2 UV-I 3,8 C 37 % 42 % 100 % 1011,8 hPa 0,0 l/m 10,0 km/h (2 Bft) 2 min 9,6 km/h (2 Bft)
01.05.2010 16:02 22,6 C 19,4 C 11,2 UV-I 4,2 C 37 % 39 % 100 % 1011,8 hPa 0,0 l/m 10,4 km/h (2 Bft) 2 min 10,8 km/h (2 Bft)
01.05.2010 16:04 22,6 C 19,5 C 11,2 UV-I 4,2 C 37 % 39 % 100 % 1011,8 hPa 0,0 l/m 10,8 km/h (2 Bft) 2 min 20,1 km/h (4 Bft)
01.05.2010 16:06 22,7 C 19,5 C 6,9 UV-I 4,0 C 37 % 38 % 100 % 1011,8 hPa 0,0 l/m 10,4 km/h (2 Bft) 2 min 22,5 km/h (4 Bft)
01.05.2010 16:08 22,7 C 19,3 C 6,9 UV-I 3,8 C 37 % 39 % 100 % 1011,8 hPa 0,0 l/m 11,2 km/h (2 Bft) 2 min 11,2 km/h (2 Bft)
01.05.2010 16:10 22,8 C 19,3 C 6,9 UV-I 3,6 C 37 % 39 % 100 % 1011,8 hPa 0,0 l/m 10,4 km/h (2 Bft) 2 min 11,2 km/h (2 Bft)
01.05.2010 16:12 22,8 C 19,5 C 6,9 UV-I 3,6 C 37 % 40 % 100 % 1012,6 hPa 0,0 l/m 9,6 km/h (2 Bft) 2 min 8,4 km/h (2 Bft)
01.05.2010 16:14 22,9 C 19,7 C 6,9 UV-I 3,7 C 37 % 39 % 100 % 1012,6 hPa 0,0 l/m 10,0 km/h (2 Bft) 2 min 18,9 km/h (3 Bft)
01.05.2010 16:16 22,9 C 19,7 C 10,8 UV-I 4,2 C 36 % 39 % 100 % 1012,6 hPa 0,0 l/m 9,2 km/h (2 Bft) 2 min 6,4 km/h (2 Bft)
01.05.2010 16:18 23,0 C 19,6 C 10,8 UV-I 4,2 C 36 % 38 % 100 % 1012,6 hPa 0,0 l/m 8,4 km/h (2 Bft) 2 min 14,9 km/h (3 Bft)
01.05.2010 16:20 23,0 C 19,6 C 6,3 UV-I 3,8 C 36 % 38 % 100 % 1012,6 hPa 0,0 l/m 8,4 km/h (2 Bft) 2 min 11,2 km/h (2 Bft)
01.05.2010 16:22 23,0 C 19,5 C 6,3 UV-I 3,5 C 36 % 39 % 100 % 1012,6 hPa 0,0 l/m 8,0 km/h (2 Bft) 2 min 10,4 km/h (2 Bft)
01.05.2010 16:24 23,0 C 19,5 C 6,3 UV-I 3,2 C 36 % 39 % 91 % 1012,6 hPa 0,0 l/m 8,4 km/h (2 Bft) 2 min 8,8 km/h (2 Bft)
01.05.2010 16:26 23,0 C 19,5 C 7,9 UV-I 3,0 C 36 % 39 % 86 % 1012,6 hPa 0,0 l/m 8,0 km/h (2 Bft) 2 min 20,5 km/h (4 Bft)
01.05.2010 16:28 23,1 C 19,5 C 7,9 UV-I 3,2 C 36 % 39 % 91 % 1012,6 hPa 0,0 l/m 8,8 km/h (2 Bft) 2 min 14,1 km/h (3 Bft)
01.05.2010 16:30 23,1 C 19,5 C 7,9 UV-I 3,3 C 36 % 40 % 94 % 1012,6 hPa 0,0 l/m 10,0 km/h (2 Bft) 2 min 22,9 km/h (4 Bft)
01.05.2010 16:32 23,1 C 19,3 C 7,9 UV-I 3,4 C 36 % 39 % 97 % 1012,7 hPa 0,0 l/m 10,8 km/h (2 Bft) 2 min 10,8 km/h (2 Bft)
01.05.2010 16:34 23,1 C 19,2 C 7,9 UV-I 2,9 C 36 % 40 % 83 % 1012,7 hPa 0,0 l/m 10,4 km/h (2 Bft) 2 min 9,6 km/h (2 Bft)
01.05.2010 16:36 23,1 C 19,3 C 5,6 UV-I 2,5 C 36 % 40 % 71 % 1012,7 hPa 0,0 l/m 10,4 km/h (2 Bft) 0 min 7,6 km/h (2 Bft)
01.05.2010 16:38 23,2 C 19,3 C 5,6 UV-I 2,4 C 36 % 40 % 69 % 1012,7 hPa 0,0 l/m 9,2 km/h (2 Bft) 0 min 8,4 km/h (2 Bft)
01.05.2010 16:40 23,1 C 19,1 C 3,4 UV-I 2,3 C 36 % 42 % 66 % 1012,7 hPa 0,0 l/m 8,8 km/h (2 Bft) 0 min 13,7 km/h (3 Bft)
01.05.2010 16:42 23,1 C 19,0 C 3,4 UV-I 2,0 C 36 % 42 % 57 % 1012,7 hPa 0,0 l/m 6,8 km/h (2 Bft) 0 min 6,8 km/h (2 Bft)
01.05.2010 16:44 23,0 C 19,1 C 3,4 UV-I 1,6 C 36 % 41 % 46 % 1012,7 hPa 0,0 l/m 6,4 km/h (2 Bft) 0 min 11,2 km/h (2 Bft)
01.05.2010 16:46 23,1 C 19,0 C 6,4 UV-I 1,8 C 36 % 40 % 51 % 1012,7 hPa 0,0 l/m 6,8 km/h (2 Bft) 0 min 7,2 km/h (2 Bft)
01.05.2010 16:48 23,1 C 19,0 C 6,4 UV-I 2,2 C 36 % 40 % 63 % 1012,7 hPa 0,0 l/m 8,4 km/h (2 Bft) 0 min 27,7 km/h (4 Bft)
01.05.2010 16:50 23,0 C 18,9 C 3,3 UV-I 2,1 C 36 % 40 % 60 % 1012,7 hPa 0,0 l/m 8,8 km/h (2 Bft) 0 min 13,3 km/h (3 Bft)
01.05.2010 16:52 23,1 C 18,8 C 3,3 UV-I 1,9 C 36 % 40 % 54 % 1011,9 hPa 0,0 l/m 10,0 km/h (2 Bft) 0 min 24,1 km/h (4 Bft)
01.05.2010 16:54 23,0 C 18,7 C 3,3 UV-I 1,6 C 36 % 40 % 46 % 1011,9 hPa 0,0 l/m 10,8 km/h (2 Bft) 0 min 17,7 km/h (3 Bft)
01.05.2010 16:56 23,0 C 18,6 C 1,9 UV-I 1,2 C 36 % 40 % 34 % 1011,9 hPa 0,0 l/m 11,6 km/h (2 Bft) 0 min 16,9 km/h (3 Bft)
01.05.2010 16:58 23,0 C 18,4 C 1,9 UV-I 1,1 C 36 % 40 % 31 % 1011,9 hPa 0,0 l/m 12,4 km/h (3 Bft) 0 min 24,1 km/h (4 Bft)
01.05.2010 17:00 22,9 C 18,3 C 1,1 UV-I 0,9 C 36 % 47 % 26 % 1011,9 hPa 0,0 l/m 12,0 km/h (2 Bft) 0 min 12,0 km/h (2 Bft)
01.05.2010 17:02 22,9 C 18,3 C 1,1 UV-I 0,6 C 36 % 49 % 17 % 1011,9 hPa 0,0 l/m 11,6 km/h (2 Bft) 0 min 16,1 km/h (3 Bft)
01.05.2010 17:04 22,8 C 18,1 C 1,1 UV-I 0,7 C 36 % 51 % 20 % 1011,9 hPa 0,0 l/m 13,3 km/h (3 Bft) 0 min 14,9 km/h (3 Bft)
01.05.2010 17:06 22,8 C 18,0 C 4,8 UV-I 1,1 C 37 % 52 % 31 % 1011,9 hPa 0,0 l/m 12,8 km/h (3 Bft) 0 min 8,4 km/h (2 Bft)
01.05.2010 17:08 22,8 C 18,1 C 4,8 UV-I 1,4 C 37 % 52 % 40 % 1011,9 hPa 0,0 l/m 13,3 km/h (3 Bft) 0 min 43,4 km/h (6 Bft)
01.05.2010 17:10 22,8 C 18,0 C 5,5 UV-I 1,9 C 37 % 53 % 54 % 1011,9 hPa 0,0 l/m 14,9 km/h (3 Bft) 0 min 43,4 km/h (6 Bft)
01.05.2010 17:12 22,8 C 17,8 C 5,5 UV-I 2,0 C 37 % 53 % 57 % 1011,9 hPa 0,0 l/m 15,3 km/h (3 Bft) 0 min 10,4 km/h (2 Bft)
01.05.2010 17:14 22,8 C 17,9 C 5,5 UV-I 1,8 C 37 % 54 % 51 % 1011,9 hPa 0,0 l/m 15,7 km/h (3 Bft) 0 min 36,5 km/h (5 Bft)
01.05.2010 17:16 22,8 C 17,7 C 6,0 UV-I 2,1 C 38 % 54 % 60 % 1011,9 hPa 0,0 l/m 14,9 km/h (3 Bft) 0 min 36,9 km/h (5 Bft)
01.05.2010 17:18 22,8 C 17,7 C 6,0 UV-I 2,1 C 38 % 55 % 60 % 1011,9 hPa 0,0 l/m 16,9 km/h (3 Bft) 0 min 10,0 km/h (2 Bft)
01.05.2010 17:20 22,9 C 17,6 C 5,5 UV-I 2,2 C 38 % 55 % 63 % 1011,9 hPa 0,0 l/m 14,5 km/h (3 Bft) 0 min 45,4 km/h (6 Bft)
01.05.2010 17:22 22,8 C 17,5 C 5,5 UV-I 1,9 C 38 % 55 % 54 % 1011,9 hPa 0,0 l/m 13,7 km/h (3 Bft) 0 min 12,0 km/h (2 Bft)
01.05.2010 17:24 22,8 C 17,3 C 5,5 UV-I 1,8 C 38 % 56 % 51 % 1011,9 hPa 0,0 l/m 14,5 km/h (3 Bft) 0 min 22,1 km/h (4 Bft)
01.05.2010 17:26 22,8 C 17,2 C 3,6 UV-I 1,5 C 38 % 56 % 43 % 1011,9 hPa 0,0 l/m 13,7 km/h (3 Bft) 0 min 4,4 km/h (1 Bft)
01.05.2010 17:28 22,8 C 17,2 C 3,6 UV-I 1,3 C 38 % 56 % 37 % 1011,9 hPa 0,0 l/m 12,0 km/h (2 Bft) 0 min 5,2 km/h (1 Bft)
01.05.2010 17:30 22,8 C 17,0 C 2,8 UV-I 1,3 C 39 % 57 % 37 % 1011,9 hPa 0,0 l/m 11,2 km/h (2 Bft) 0 min 13,3 km/h (3 Bft)
01.05.2010 17:32 22,7 C 16,9 C 2,8 UV-I 1,3 C 39 % 57 % 37 % 1011,9 hPa 0,0 l/m 13,3 km/h (3 Bft) 0 min 28,1 km/h (4 Bft)
01.05.2010 17:34 22,7 C 16,8 C 2,8 UV-I 1,2 C 39 % 58 % 34 % 1011,9 hPa 0,0 l/m 15,3 km/h (3 Bft) 0 min 28,9 km/h (5 Bft)
01.05.2010 17:36 22,7 C 16,7 C 3,0 UV-I 1,0 C 39 % 59 % 29 % 1011,9 hPa 0,0 l/m 16,9 km/h (3 Bft) 0 min 34,5 km/h (5 Bft)
01.05.2010 17:38 22,7 C 16,5 C 3,0 UV-I 1,0 C 39 % 59 % 29 % 1011,9 hPa 0,0 l/m 17,7 km/h (3 Bft) 0 min 22,1 km/h (4 Bft)
01.05.2010 17:40 22,6 C 16,4 C 2,5 UV-I 0,9 C 39 % 59 % 26 % 1011,9 hPa 0,0 l/m 18,5 km/h (3 Bft) 0 min 26,5 km/h (4 Bft)
01.05.2010 17:42 22,6 C 16,3 C 2,5 UV-I 0,8 C 39 % 59 % 23 % 1011,9 hPa 0,0 l/m 18,9 km/h (3 Bft) 0 min 10,0 km/h (2 Bft)
01.05.2010 17:44 22,6 C 16,2 C 2,5 UV-I 0,7 C 39 % 59 % 20 % 1011,9 hPa 0,0 l/m 16,1 km/h (3 Bft) 0 min 20,1 km/h (4 Bft)
01.05.2010 17:46 22,6 C 16,2 C 2,6 UV-I 0,6 C 39 % 59 % 17 % 1011,9 hPa 0,0 l/m 13,7 km/h (3 Bft) 0 min 8,4 km/h (2 Bft)
01.05.2010 17:48 22,6 C 16,3 C 2,6 UV-I 0,4 C 39 % 59 % 11 % 1011,9 hPa 0,0 l/m 11,6 km/h (2 Bft) 0 min 9,2 km/h (2 Bft)
01.05.2010 17:50 22,5 C 16,1 C 2,2 UV-I 0,4 C 40 % 59 % 11 % 1011,9 hPa 0,0 l/m 12,0 km/h (2 Bft) 0 min 12,4 km/h (3 Bft)
01.05.2010 17:52 22,5 C 16,0 C 2,2 UV-I 0,5 C 40 % 59 % 14 % 1011,5 hPa 0,0 l/m 11,2 km/h (2 Bft) 0 min 9,6 km/h (2 Bft)
01.05.2010 17:54 22,5 C 15,9 C 2,2 UV-I 0,4 C 40 % 59 % 11 % 1011,5 hPa 0,0 l/m 12,0 km/h (2 Bft) 0 min 26,1 km/h (4 Bft)
01.05.2010 17:56 22,5 C 15,9 C 2,4 UV-I 0,3 C 40 % 59 % 9 % 1011,5 hPa 0,0 l/m 13,3 km/h (3 Bft) 0 min 15,3 km/h (3 Bft)
01.05.2010 17:58 22,4 C 15,8 C 2,4 UV-I 0,4 C 40 % 59 % 11 % 1011,5 hPa 0,0 l/m 12,8 km/h (3 Bft) 0 min 20,1 km/h (4 Bft)
01.05.2010 18:00 22,4 C 15,9 C 2,8 UV-I 0,2 C 40 % 59 % 6 % 1011,5 hPa 0,0 l/m 11,6 km/h (2 Bft) 0 min 5,2 km/h (1 Bft)
01.05.2010 18:02 22,4 C 15,7 C 2,8 UV-I 0,5 C 40 % 59 % 14 % 1011,5 hPa 0,0 l/m 11,6 km/h (2 Bft) 0 min 7,6 km/h (2 Bft)
01.05.2010 18:04 22,4 C 15,8 C 2,8 UV-I 0,5 C 40 % 59 % 14 % 1011,5 hPa 0,0 l/m 12,0 km/h (2 Bft) 0 min 28,9 km/h (5 Bft)
01.05.2010 18:06 22,4 C 15,7 C 4,0 UV-I 0,8 C 40 % 59 % 23 % 1011,5 hPa 0,0 l/m 11,6 km/h (2 Bft) 0 min 11,2 km/h (2 Bft)
01.05.2010 18:08 22,4 C 15,8 C 4,0 UV-I 0,9 C 40 % 59 % 26 % 1011,5 hPa 0,0 l/m 12,4 km/h (3 Bft) 0 min 15,3 km/h (3 Bft)
01.05.2010 18:10 22,4 C 15,9 C 4,6 UV-I 1,1 C 40 % 59 % 31 % 1011,5 hPa 0,0 l/m 10,4 km/h (2 Bft) 0 min 6,4 km/h (2 Bft)
01.05.2010 18:12 22,4 C 15,9 C 4,6 UV-I 1,3 C 40 % 60 % 37 % 1011,6 hPa 0,0 l/m 9,6 km/h (2 Bft) 0 min 8,8 km/h (2 Bft)
01.05.2010 18:14 22,4 C 16,1 C 4,6 UV-I 1,3 C 40 % 59 % 37 % 1011,6 hPa 0,0 l/m 9,6 km/h (2 Bft) 0 min 10,8 km/h (2 Bft)
01.05.2010 18:16 22,4 C 16,0 C 3,6 UV-I 1,5 C 40 % 58 % 43 % 1011,6 hPa 0,0 l/m 9,2 km/h (2 Bft) 0 min 17,7 km/h (3 Bft)
01.05.2010 18:18 22,4 C 16,1 C 3,6 UV-I 1,4 C 40 % 58 % 40 % 1011,6 hPa 0,0 l/m 9,6 km/h (2 Bft) 0 min 38,1 km/h (5 Bft)
01.05.2010 18:20 22,4 C 16,0 C 3,3 UV-I 1,4 C 40 % 59 % 40 % 1011,6 hPa 0,0 l/m 11,2 km/h (2 Bft) 0 min 20,1 km/h (4 Bft)
01.05.2010 18:22 22,4 C 15,9 C 3,3 UV-I 1,3 C 40 % 59 % 37 % 1011,6 hPa 0,0 l/m 11,6 km/h (2 Bft) 0 min 4,4 km/h (1 Bft)
01.05.2010 18:24 22,4 C 16,0 C 3,3 UV-I 1,1 C 40 % 59 % 31 % 1011,6 hPa 0,0 l/m 12,8 km/h (3 Bft) 0 min 21,3 km/h (4 Bft)
01.05.2010 18:26 22,4 C 15,9 C 3,0 UV-I 1,1 C 40 % 59 % 31 % 1011,6 hPa 0,0 l/m 12,0 km/h (2 Bft) 0 min 28,9 km/h (5 Bft)
01.05.2010 18:28 22,4 C 15,8 C 3,0 UV-I 1,2 C 40 % 59 % 34 % 1011,6 hPa 0,0 l/m 11,2 km/h (2 Bft) 0 min 9,2 km/h (2 Bft)
01.05.2010 18:30 22,4 C 16,0 C 3,4 UV-I 1,0 C 40 % 60 % 29 % 1011,6 hPa 0,0 l/m 9,6 km/h (2 Bft) 0 min 9,2 km/h (2 Bft)
01.05.2010 18:32 22,4 C 16,0 C 3,4 UV-I 1,2 C 40 % 59 % 34 % 1011,8 hPa 0,0 l/m 8,0 km/h (2 Bft) 0 min 6,4 km/h (2 Bft)
01.05.2010 18:34 22,4 C 16,1 C 3,4 UV-I 1,0 C 40 % 59 % 29 % 1011,8 hPa 0,0 l/m 9,6 km/h (2 Bft) 0 min 12,4 km/h (3 Bft)
01.05.2010 18:36 22,4 C 15,9 C 3,1 UV-I 1,1 C 40 % 59 % 31 % 1011,8 hPa 0,0 l/m 9,6 km/h (2 Bft) 0 min 12,4 km/h (3 Bft)
01.05.2010 18:38 22,4 C 15,9 C 3,1 UV-I 1,0 C 40 % 60 % 29 % 1011,8 hPa 0,0 l/m 9,6 km/h (2 Bft) 0 min 13,3 km/h (3 Bft)
01.05.2010 18:40 22,4 C 15,8 C 2,8 UV-I 1,0 C 40 % 60 % 29 % 1011,8 hPa 0,0 l/m 9,2 km/h (2 Bft) 0 min 14,1 km/h (3 Bft)
01.05.2010 18:42 22,4 C 15,8 C 2,8 UV-I 0,8 C 40 % 60 % 23 % 1011,8 hPa 0,0 l/m 11,6 km/h (2 Bft) 0 min 37,7 km/h (5 Bft)
01.05.2010 18:44 22,2 C 15,7 C 2,8 UV-I 0,7 C 40 % 60 % 20 % 1011,8 hPa 0,0 l/m 11,6 km/h (2 Bft) 0 min 18,5 km/h (3 Bft)
01.05.2010 18:46 22,3 C 15,6 C 2,6 UV-I 0,5 C 40 % 60 % 14 % 1011,8 hPa 0,0 l/m 10,0 km/h (2 Bft) 0 min 13,3 km/h (3 Bft)
01.05.2010 18:48 22,2 C 15,6 C 2,6 UV-I 0,4 C 40 % 61 % 11 % 1011,8 hPa 0,0 l/m 10,8 km/h (2 Bft) 0 min 28,5 km/h (4 Bft)
01.05.2010 18:50 22,3 C 15,5 C 2,3 UV-I 0,3 C 40 % 61 % 9 % 1011,8 hPa 0,0 l/m 12,8 km/h (3 Bft) 0 min 27,3 km/h (4 Bft)
01.05.2010 18:52 22,3 C 15,5 C 2,3 UV-I 0,0 C 40 % 61 % 0 % 1011,8 hPa 0,0 l/m 12,8 km/h (3 Bft) 0 min 26,1 km/h (4 Bft)
01.05.2010 18:54 22,2 C 15,3 C 2,3 UV-I 0,0 C 40 % 62 % 0 % 1011,8 hPa 0,0 l/m 10,8 km/h (2 Bft) 0 min 7,6 km/h (2 Bft)
01.05.2010 18:56 22,2 C 15,3 C 2,0 UV-I 0,0 C 40 % 62 % 0 % 1011,8 hPa 0,0 l/m 10,0 km/h (2 Bft) 0 min 4,4 km/h (1 Bft)
01.05.2010 18:58 22,2 C 15,3 C 2,0 UV-I 0,0 C 40 % 62 % 0 % 1011,8 hPa 0,0 l/m 10,0 km/h (2 Bft) 0 min 8,8 km/h (2 Bft)
01.05.2010 19:00 22,2 C 15,3 C 1,8 UV-I 0,0 C 40 % 62 % 0 % 1011,8 hPa 0,0 l/m 8,0 km/h (2 Bft) 0 min 16,1 km/h (3 Bft)
01.05.2010 19:02 22,2 C 15,2 C 1,8 UV-I 0,0 C 40 % 63 % 0 % 1011,8 hPa 0,0 l/m 8,0 km/h (2 Bft) 0 min 16,1 km/h (3 Bft)
01.05.2010 19:04 22,2 C 15,2 C 1,8 UV-I 0,0 C 41 % 63 % 0 % 1011,8 hPa 0,0 l/m 8,4 km/h (2 Bft) 0 min 34,5 km/h (5 Bft)
01.05.2010 19:06 22,2 C 15,1 C 1,4 UV-I 0,0 C 41 % 63 % 0 % 1011,8 hPa 0,0 l/m 10,8 km/h (2 Bft) 0 min 24,5 km/h (4 Bft)
01.05.2010 19:08 22,2 C 14,9 C 1,4 UV-I 0,0 C 41 % 63 % 0 % 1011,8 hPa 0,0 l/m 12,4 km/h (3 Bft) 0 min 14,5 km/h (3 Bft)
01.05.2010 19:10 22,1 C 14,9 C 1,2 UV-I 0,0 C 41 % 63 % 0 % 1011,8 hPa 0,0 l/m 14,5 km/h (3 Bft) 0 min 18,9 km/h (3 Bft)
01.05.2010 19:14 22,1 C 14,7 C 1,2 UV-I 0,0 C 41 % 64 % 0 % 1011,7 hPa 0,0 l/m 15,7 km/h (3 Bft) 0 min 18,9 km/h (3 Bft)
01.05.2010 19:16 22,0 C 14,7 C 1,4 UV-I 0,0 C 41 % 64 % 0 % 1011,7 hPa 0,0 l/m 14,1 km/h (3 Bft) 0 min 12,4 km/h (3 Bft)
01.05.2010 19:18 22,0 C 14,7 C 1,4 UV-I 0,0 C 41 % 65 % 0 % 1011,7 hPa 0,0 l/m 11,6 km/h (2 Bft) 0 min 8,4 km/h (2 Bft)
01.05.2010 19:20 22,0 C 14,7 C 1,1 UV-I 0,0 C 41 % 65 % 0 % 1011,7 hPa 0,0 l/m 11,2 km/h (2 Bft) 0 min 39,3 km/h (6 Bft)
01.05.2010 19:22 22,0 C 14,7 C 1,1 UV-I 0,0 C 41 % 65 % 0 % 1011,7 hPa 0,0 l/m 11,6 km/h (2 Bft) 0 min 15,3 km/h (3 Bft)
01.05.2010 19:24 22,0 C 14,5 C 1,1 UV-I 0,0 C 41 % 65 % 0 % 1011,7 hPa 0,0 l/m 10,8 km/h (2 Bft) 0 min 18,5 km/h (3 Bft)
01.05.2010 19:26 22,0 C 14,5 C 0,5 UV-I 0,0 C 41 % 65 % 0 % 1011,7 hPa 0,0 l/m 11,6 km/h (2 Bft) 0 min 15,3 km/h (3 Bft)
01.05.2010 19:28 22,0 C 14,4 C 0,5 UV-I 0,0 C 41 % 65 % 0 % 1011,7 hPa 0,0 l/m 13,3 km/h (3 Bft) 0 min 18,9 km/h (3 Bft)
01.05.2010 19:30 21,9 C 14,4 C 0,4 UV-I 0,0 C 41 % 65 % 0 % 1011,7 hPa 0,0 l/m 13,7 km/h (3 Bft) 0 min 10,4 km/h (2 Bft)
01.05.2010 19:32 21,9 C 14,3 C 0,4 UV-I 0,0 C 41 % 65 % 0 % 1011,3 hPa 0,0 l/m 12,4 km/h (3 Bft) 0 min 16,9 km/h (3 Bft)
01.05.2010 19:34 21,9 C 14,2 C 0,4 UV-I 0,0 C 41 % 66 % 0 % 1011,3 hPa 0,0 l/m 11,2 km/h (2 Bft) 0 min 13,3 km/h (3 Bft)
01.05.2010 19:36 21,8 C 14,3 C 0,6 UV-I 0,0 C 41 % 66 % 0 % 1011,3 hPa 0,0 l/m 10,8 km/h (2 Bft) 0 min 8,4 km/h (2 Bft)
01.05.2010 19:38 21,8 C 14,3 C 0,6 UV-I 0,0 C 41 % 66 % 0 % 1011,3 hPa 0,0 l/m 8,4 km/h (2 Bft) 0 min 0,0 km/h (0 Bft)
01.05.2010 19:40 21,8 C 14,2 C 0,4 UV-I 0,0 C 41 % 66 % 0 % 1011,3 hPa 0,0 l/m 6,8 km/h (2 Bft) 0 min 6,8 km/h (2 Bft)
01.05.2010 19:42 21,8 C 14,1 C 0,4 UV-I 0,0 C 41 % 66 % 0 % 1011,3 hPa 0,0 l/m 6,0 km/h (2 Bft) 0 min 0,0 km/h (0 Bft)
01.05.2010 19:44 21,7 C 14,2 C 0,4 UV-I 0,0 C 41 % 66 % 0 % 1011,3 hPa 0,0 l/m 5,2 km/h (1 Bft) 0 min 8,8 km/h (2 Bft)
01.05.2010 19:46 21,7 C 14,1 C 0,5 UV-I 0,0 C 41 % 66 % 0 % 1011,3 hPa 0,0 l/m 3,2 km/h (1 Bft) 0 min 4,0 km/h (1 Bft)
01.05.2010 19:48 21,7 C 14,1 C 0,5 UV-I 0,0 C 41 % 66 % 0 % 1011,3 hPa 0,0 l/m 3,2 km/h (1 Bft) 0 min 7,2 km/h (2 Bft)
01.05.2010 19:50 21,6 C 14,1 C 0,4 UV-I 0,0 C 41 % 66 % 0 % 1011,3 hPa 0,0 l/m 4,4 km/h (1 Bft) 0 min 0,0 km/h (0 Bft)
01.05.2010 19:52 21,6 C 14,1 C 0,4 UV-I 0,0 C 41 % 66 % 0 % 1011,7 hPa 0,0 l/m 3,6 km/h (1 Bft) 0 min 16,5 km/h (3 Bft)
01.05.2010 19:54 21,6 C 14,1 C 0,4 UV-I 0,0 C 42 % 66 % 0 % 1011,7 hPa 0,0 l/m 3,6 km/h (1 Bft) 0 min 6,0 km/h (2 Bft)
01.05.2010 19:56 21,6 C 14,1 C 0,2 UV-I 0,0 C 42 % 66 % 0 % 1011,7 hPa 0,0 l/m 3,2 km/h (1 Bft) 0 min 4,0 km/h (1 Bft)
01.05.2010 19:58 21,6 C 14,1 C 0,2 UV-I 0,0 C 42 % 66 % 0 % 1011,7 hPa 0,0 l/m 3,2 km/h (1 Bft) 0 min 6,4 km/h (2 Bft)
01.05.2010 20:00 21,5 C 14,0 C 0,0 UV-I 0,0 C 42 % 66 % 0 % 1011,7 hPa 0,0 l/m 3,2 km/h (1 Bft) 0 min 4,8 km/h (1 Bft)
01.05.2010 20:02 21,5 C 14,1 C 0,0 UV-I 0,0 C 42 % 66 % 0 % 1011,7 hPa 0,0 l/m 3,6 km/h (1 Bft) 0 min 0,0 km/h (0 Bft)
01.05.2010 20:04 21,5 C 14,0 C 0,0 UV-I 0,0 C 42 % 67 % 0 % 1011,7 hPa 0,0 l/m 3,2 km/h (1 Bft) 0 min 9,6 km/h (2 Bft)
01.05.2010 20:06 21,4 C 13,9 C 0,1 UV-I 0,0 C 42 % 67 % 0 % 1011,7 hPa 0,0 l/m 3,2 km/h (1 Bft) 0 min 0,0 km/h (0 Bft)
01.05.2010 20:08 21,4 C 13,9 C 0,1 UV-I 0,0 C 42 % 67 % 0 % 1011,7 hPa 0,0 l/m 2,8 km/h (1 Bft) 0 min 0,0 km/h (0 Bft)
01.05.2010 20:10 21,4 C 13,9 C 0,0 UV-I 0,0 C 42 % 67 % 0 % 1011,7 hPa 0,0 l/m 2,8 km/h (1 Bft) 0 min 8,0 km/h (2 Bft)
01.05.2010 20:12 21,4 C 13,8 C 0,0 UV-I 0,0 C 42 % 67 % 0 % 1011,3 hPa 0,0 l/m 1,6 km/h (1 Bft) 0 min 0,0 km/h (0 Bft)
01.05.2010 20:14 21,2 C 13,9 C 0,0 UV-I 0,0 C 42 % 67 % 0 % 1011,3 hPa 0,0 l/m 1,6 km/h (1 Bft) 0 min 8,4 km/h (2 Bft)
01.05.2010 20:16 21,2 C 13,7 C 0,0 UV-I 0,0 C 42 % 67 % 0 % 1011,3 hPa 0,0 l/m 1,2 km/h (1 Bft) 0 min 4,0 km/h (1 Bft)
01.05.2010 20:18 21,3 C 13,8 C 0,0 UV-I 0,0 C 42 % 67 % 0 % 1011,3 hPa 0,0 l/m 2,8 km/h (1 Bft) 0 min 5,2 km/h (1 Bft)
01.05.2010 20:20 21,3 C 13,7 C 0,0 UV-I 0,0 C 42 % 67 % 0 % 1011,3 hPa 0,0 l/m 2,8 km/h (1 Bft) 0 min 0,0 km/h (0 Bft)
01.05.2010 20:22 21,2 C 13,7 C 0,0 UV-I 0,0 C 42 % 67 % 0 % 1011,3 hPa 0,0 l/m 2,8 km/h (1 Bft) 0 min 5,2 km/h (1 Bft)
01.05.2010 20:24 21,2 C 13,6 C 0,0 UV-I 0,0 C 42 % 67 % 0 % 1011,3 hPa 0,0 l/m 3,6 km/h (1 Bft) 0 min 4,4 km/h (1 Bft)
01.05.2010 20:26 21,2 C 13,7 C 0,0 UV-I 0,0 C 42 % 67 % 0 % 1011,3 hPa 0,0 l/m 2,8 km/h (1 Bft) 0 min 0,0 km/h (0 Bft)
01.05.2010 20:28 21,2 C 13,6 C 0,0 UV-I 0,0 C 42 % 67 % 0 % 1011,3 hPa 0,0 l/m 2,8 km/h (1 Bft) 0 min 0,0 km/h (0 Bft)
01.05.2010 20:30 21,2 C 13,5 C 0,0 UV-I 0,0 C 42 % 67 % 0 % 1011,3 hPa 0,0 l/m 1,6 km/h (1 Bft) 0 min 0,0 km/h (0 Bft)
01.05.2010 20:32 21,2 C 13,5 C 0,0 UV-I 0,0 C 43 % 66 % 0 % 1011,2 hPa 0,0 l/m 2,8 km/h (1 Bft) 0 min 7,6 km/h (2 Bft)
01.05.2010 20:34 21,1 C 13,4 C 0,0 UV-I 0,0 C 43 % 66 % 0 % 1011,2 hPa 0,0 l/m 2,0 km/h (1 Bft) 0 min 0,0 km/h (0 Bft)
01.05.2010 20:36 21,1 C 13,5 C 0,0 UV-I 0,0 C 43 % 66 % 0 % 1011,2 hPa 0,0 l/m 2,8 km/h (1 Bft) 0 min 7,2 km/h (2 Bft)
01.05.2010 20:40 21,1 C 13,4 C 0,0 UV-I 0,0 C 43 % 66 % 0 % 1011,2 hPa 0,0 l/m 3,2 km/h (1 Bft) 0 min 4,4 km/h (1 Bft)
01.05.2010 20:42 21,0 C 13,3 C 0,0 UV-I 0,0 C 43 % 67 % 0 % 1011,2 hPa 0,0 l/m 3,6 km/h (1 Bft) 0 min 7,2 km/h (2 Bft)
01.05.2010 20:44 21,0 C 13,3 C 0,0 UV-I 0,0 C 43 % 67 % 0 % 1011,2 hPa 0,0 l/m 2,4 km/h (1 Bft) 0 min 0,0 km/h (0 Bft)
01.05.2010 20:46 21,0 C 13,3 C 0,0 UV-I 0,0 C 43 % 67 % 0 % 1011,2 hPa 0,0 l/m 2,0 km/h (1 Bft) 0 min 5,2 km/h (1 Bft)
01.05.2010 20:48 21,0 C 13,3 C 0,0 UV-I 0,0 C 43 % 67 % 0 % 1011,2 hPa 0,0 l/m 1,6 km/h (1 Bft) 0 min 0,0 km/h (0 Bft)
01.05.2010 20:50 21,0 C 13,3 C 0,0 UV-I 0,0 C 43 % 67 % 0 % 1011,2 hPa 0,0 l/m 1,2 km/h (1 Bft) 0 min 0,0 km/h (0 Bft)
01.05.2010 20:52 21,0 C 13,2 C 0,0 UV-I 0,0 C 43 % 67 % 0 % 1011,8 hPa 0,0 l/m 0,4 km/h (0 Bft) 0 min 0,0 km/h (0 Bft)
01.05.2010 20:54 20,9 C 13,2 C 0,0 UV-I 0,0 C 43 % 67 % 0 % 1011,8 hPa 0,0 l/m 0,0 km/h (0 Bft) 0 min 0,0 km/h (0 Bft)
01.05.2010 20:58 20,9 C 13,1 C 0,0 UV-I 0,0 C 43 % 67 % 0 % 1011,8 hPa 0,0 l/m 0,0 km/h (0 Bft) 0 min 0,0 km/h (0 Bft)
01.05.2010 21:00 20,9 C 13,1 C 0,0 UV-I 0,0 C 43 % 67 % 0 % 1011,8 hPa 0,0 l/m 0,0 km/h (0 Bft) 0 min 0,0 km/h (0 Bft)
01.05.2010 21:02 20,9 C 13,0 C 0,0 UV-I 0,0 C 43 % 67 % 0 % 1011,8 hPa 0,0 l/m 0,0 km/h (0 Bft) 0 min 0,0 km/h (0 Bft)
01.05.2010 21:04 20,8 C 13,0 C 0,0 UV-I 0,0 C 43 % 68 % 0 % 1011,8 hPa 0,0 l/m 0,0 km/h (0 Bft) 0 min 0,0 km/h (0 Bft)
01.05.2010 21:06 20,8 C 13,0 C 0,0 UV-I 0,0 C 43 % 68 % 0 % 1011,8 hPa 0,0 l/m 0,0 km/h (0 Bft) 0 min 0,0 km/h (0 Bft)
01.05.2010 21:08 20,8 C 12,9 C 0,0 UV-I 0,0 C 43 % 68 % 0 % 1011,8 hPa 0,0 l/m 0,0 km/h (0 Bft) 0 min 0,0 km/h (0 Bft)
01.05.2010 21:10 20,8 C 12,8 C 0,0 UV-I 0,0 C 43 % 68 % 0 % 1011,8 hPa 0,0 l/m 0,0 km/h (0 Bft) 0 min 0,0 km/h (0 Bft)
01.05.2010 21:12 20,8 C 12,9 C 0,0 UV-I 0,0 C 43 % 68 % 0 % 1012,4 hPa 0,0 l/m 0,0 km/h (0 Bft) 0 min 0,0 km/h (0 Bft)
01.05.2010 21:14 20,8 C 12,8 C 0,0 UV-I 0,0 C 43 % 69 % 0 % 1012,4 hPa 0,0 l/m 0,0 km/h (0 Bft) 0 min 0,0 km/h (0 Bft)
01.05.2010 21:18 20,8 C 12,7 C 0,0 UV-I 0,0 C 44 % 69 % 0 % 1012,4 hPa 0,0 l/m 0,0 km/h (0 Bft) 0 min 0,0 km/h (0 Bft)
01.05.2010 21:20 20,7 C 12,6 C 0,0 UV-I 0,0 C 44 % 69 % 0 % 1012,4 hPa 0,0 l/m 0,0 km/h (0 Bft) 0 min 0,0 km/h (0 Bft)
01.05.2010 21:22 20,7 C 12,7 C 0,0 UV-I 0,0 C 44 % 69 % 0 % 1012,4 hPa 0,0 l/m 0,0 km/h (0 Bft) 0 min 0,0 km/h (0 Bft)
01.05.2010 21:24 20,7 C 12,6 C 0,0 UV-I 0,0 C 44 % 69 % 0 % 1012,4 hPa 0,0 l/m 0,0 km/h (0 Bft) 0 min 0,0 km/h (0 Bft)
01.05.2010 21:26 20,7 C 12,5 C 0,0 UV-I 0,0 C 44 % 69 % 0 % 1012,4 hPa 0,0 l/m 0,0 km/h (0 Bft) 0 min 0,0 km/h (0 Bft)
01.05.2010 21:30 20,6 C 12,4 C 0,0 UV-I 0,0 C 44 % 70 % 0 % 1012,4 hPa 0,0 l/m 0,0 km/h (0 Bft) 0 min 0,0 km/h (0 Bft)
01.05.2010 21:32 20,6 C 12,4 C 0,0 UV-I 0,0 C 44 % 70 % 0 % 1012,1 hPa 0,0 l/m 0,0 km/h (0 Bft) 0 min 0,0 km/h (0 Bft)
01.05.2010 21:34 20,6 C 12,5 C 0,0 UV-I 0,0 C 44 % 70 % 0 % 1012,1 hPa 0,0 l/m 0,0 km/h (0 Bft) 0 min 0,0 km/h (0 Bft)
01.05.2010 21:36 20,6 C 12,4 C 0,0 UV-I 0,0 C 44 % 70 % 0 % 1012,1 hPa 0,0 l/m 0,0 km/h (0 Bft) 0 min 0,0 km/h (0 Bft)
01.05.2010 21:38 20,6 C 12,3 C 0,0 UV-I 0,0 C 44 % 71 % 0 % 1012,1 hPa 0,0 l/m 0,0 km/h (0 Bft) 0 min 0,0 km/h (0 Bft)
01.05.2010 21:40 20,6 C 12,3 C 0,0 UV-I 0,0 C 44 % 71 % 0 % 1012,1 hPa 0,0 l/m 0,0 km/h (0 Bft) 0 min 0,0 km/h (0 Bft)
01.05.2010 21:44 20,5 C 12,3 C 0,0 UV-I 0,0 C 44 % 71 % 0 % 1012,1 hPa 0,0 l/m 0,0 km/h (0 Bft) 0 min 0,0 km/h (0 Bft)
01.05.2010 21:46 20,5 C 12,3 C 0,0 UV-I 0,0 C 44 % 71 % 0 % 1012,1 hPa 0,0 l/m 0,0 km/h (0 Bft) 0 min 0,0 km/h (0 Bft)
01.05.2010 21:48 20,5 C 12,3 C 0,0 UV-I 0,0 C 44 % 72 % 0 % 1012,1 hPa 0,0 l/m 0,0 km/h (0 Bft) 0 min 0,0 km/h (0 Bft)
01.05.2010 21:50 20,5 C 12,1 C 0,0 UV-I 0,0 C 44 % 72 % 0 % 1012,1 hPa 0,0 l/m 0,0 km/h (0 Bft) 0 min 0,0 km/h (0 Bft)
01.05.2010 21:52 20,4 C 12,1 C 0,0 UV-I 0,0 C 44 % 72 % 0 % 1012,1 hPa 0,0 l/m 0,0 km/h (0 Bft) 0 min 0,0 km/h (0 Bft)
01.05.2010 21:54 20,4 C 12,1 C 0,0 UV-I 0,0 C 44 % 72 % 0 % 1012,1 hPa 0,0 l/m 0,0 km/h (0 Bft) 0 min 0,0 km/h (0 Bft)
01.05.2010 21:56 20,4 C 12,1 C 0,0 UV-I 0,0 C 44 % 73 % 0 % 1012,1 hPa 0,0 l/m 0,0 km/h (0 Bft) 0 min 0,0 km/h (0 Bft)
01.05.2010 22:00 20,4 C 12,1 C 0,0 UV-I 0,0 C 44 % 72 % 0 % 1012,1 hPa 0,0 l/m 0,0 km/h (0 Bft) 0 min 0,0 km/h (0 Bft)
01.05.2010 22:04 20,4 C 12,0 C 0,0 UV-I 0,0 C 45 % 73 % 0 % 1012,1 hPa 0,0 l/m 0,4 km/h (0 Bft) 0 min 0,0 km/h (0 Bft)
01.05.2010 22:06 20,4 C 12,0 C 0,0 UV-I 0,0 C 45 % 73 % 0 % 1012,1 hPa 0,0 l/m 0,4 km/h (0 Bft) 0 min 0,0 km/h (0 Bft)
01.05.2010 22:08 20,4 C 12,1 C 0,0 UV-I 0,0 C 45 % 73 % 0 % 1012,1 hPa 0,0 l/m 0,4 km/h (0 Bft) 0 min 0,0 km/h (0 Bft)
01.05.2010 22:10 20,2 C 12,0 C 0,0 UV-I 0,0 C 45 % 73 % 0 % 1012,1 hPa 0,0 l/m 0,4 km/h (0 Bft) 0 min 0,0 km/h (0 Bft)
01.05.2010 22:12 20,2 C 12,0 C 0,0 UV-I 0,0 C 45 % 73 % 0 % 1012,5 hPa 0,0 l/m 0,4 km/h (0 Bft) 0 min 0,0 km/h (0 Bft)
01.05.2010 22:14 20,2 C 12,0 C 0,0 UV-I 0,0 C 45 % 73 % 0 % 1012,5 hPa 0,0 l/m 0,0 km/h (0 Bft) 0 min 0,0 km/h (0 Bft)
01.05.2010 22:16 20,3 C 12,0 C 0,0 UV-I 0,0 C 45 % 73 % 0 % 1012,5 hPa 0,0 l/m 0,0 km/h (0 Bft) 0 min 0,0 km/h (0 Bft)
01.05.2010 22:18 20,3 C 11,9 C 0,0 UV-I 0,0 C 45 % 74 % 0 % 1012,5 hPa 0,0 l/m 0,0 km/h (0 Bft) 0 min 0,0 km/h (0 Bft)
01.05.2010 22:20 20,3 C 11,9 C 0,0 UV-I 0,0 C 45 % 74 % 0 % 1012,5 hPa 0,0 l/m 0,0 km/h (0 Bft) 0 min 0,0 km/h (0 Bft)
01.05.2010 22:22 20,2 C 11,9 C 0,0 UV-I 0,0 C 45 % 74 % 0 % 1012,5 hPa 0,0 l/m 0,0 km/h (0 Bft) 0 min 0,0 km/h (0 Bft)
01.05.2010 22:24 20,2 C 11,9 C 0,0 UV-I 0,0 C 45 % 74 % 0 % 1012,5 hPa 0,0 l/m 0,0 km/h (0 Bft) 0 min 0,0 km/h (0 Bft)
01.05.2010 22:26 20,2 C 11,9 C 0,0 UV-I 0,0 C 45 % 74 % 0 % 1012,5 hPa 0,0 l/m 0,0 km/h (0 Bft) 0 min 0,0 km/h (0 Bft)
01.05.2010 22:30 20,2 C 11,8 C 0,0 UV-I 0,0 C 45 % 74 % 0 % 1012,5 hPa 0,0 l/m 0,0 km/h (0 Bft) 0 min 0,0 km/h (0 Bft)
01.05.2010 22:32 20,2 C 11,9 C 0,0 UV-I 0,0 C 45 % 74 % 0 % 1012,8 hPa 0,0 l/m 0,0 km/h (0 Bft) 0 min 0,0 km/h (0 Bft)
01.05.2010 22:34 20,2 C 11,9 C 0,0 UV-I 0,0 C 45 % 75 % 0 % 1012,8 hPa 0,0 l/m 0,0 km/h (0 Bft) 0 min 4,0 km/h (1 Bft)
01.05.2010 22:36 20,2 C 11,8 C 0,0 UV-I 0,0 C 45 % 75 % 0 % 1012,8 hPa 0,0 l/m 0,4 km/h (0 Bft) 0 min 0,0 km/h (0 Bft)
01.05.2010 22:40 20,1 C 11,8 C 0,0 UV-I 0,0 C 45 % 75 % 0 % 1012,8 hPa 0,0 l/m 0,8 km/h (0 Bft) 0 min 5,6 km/h (1 Bft)
01.05.2010 22:42 20,1 C 11,9 C 0,0 UV-I 0,0 C 45 % 75 % 0 % 1012,8 hPa 0,0 l/m 0,8 km/h (0 Bft) 0 min 0,0 km/h (0 Bft)
01.05.2010 22:44 20,1 C 11,8 C 0,0 UV-I 0,0 C 46 % 75 % 0 % 1012,8 hPa 0,0 l/m 0,8 km/h (0 Bft) 0 min 0,0 km/h (0 Bft)
01.05.2010 22:46 20,0 C 11,8 C 0,0 UV-I 0,0 C 45 % 75 % 0 % 1012,8 hPa 0,0 l/m 0,8 km/h (0 Bft) 0 min 0,0 km/h (0 Bft)
01.05.2010 22:48 20,0 C 11,8 C 0,0 UV-I 0,0 C 46 % 75 % 0 % 1012,8 hPa 0,0 l/m 0,4 km/h (0 Bft) 0 min 0,0 km/h (0 Bft)
01.05.2010 22:50 20,0 C 11,8 C 0,0 UV-I 0,0 C 46 % 75 % 0 % 1012,8 hPa 0,0 l/m 0,4 km/h (0 Bft) 0 min 0,0 km/h (0 Bft)
01.05.2010 22:52 20,0 C 11,9 C 0,0 UV-I 0,0 C 46 % 75 % 0 % 1012,6 hPa 0,0 l/m 0,0 km/h (0 Bft) 0 min 0,0 km/h (0 Bft)
01.05.2010 22:54 20,0 C 11,9 C 0,0 UV-I 0,0 C 46 % 75 % 0 % 1012,6 hPa 0,0 l/m 0,0 km/h (0 Bft) 0 min 0,0 km/h (0 Bft)
01.05.2010 22:56 20,0 C 11,9 C 0,0 UV-I 0,0 C 46 % 75 % 0 % 1012,6 hPa 0,0 l/m 0,0 km/h (0 Bft) 0 min 0,0 km/h (0 Bft)
01.05.2010 22:58 20,0 C 11,8 C 0,0 UV-I 0,0 C 46 % 76 % 0 % 1012,6 hPa 0,0 l/m 0,0 km/h (0 Bft) 0 min 0,0 km/h (0 Bft)
01.05.2010 23:00 20,0 C 11,8 C 0,0 UV-I 0,0 C 46 % 76 % 0 % 1012,6 hPa 0,0 l/m 0,0 km/h (0 Bft) 0 min 0,0 km/h (0 Bft)
01.05.2010 23:02 20,0 C 11,8 C 0,0 UV-I 0,0 C 46 % 76 % 0 % 1012,6 hPa 0,0 l/m 0,0 km/h (0 Bft) 0 min 0,0 km/h (0 Bft)
01.05.2010 23:04 20,0 C 11,7 C 0,0 UV-I 0,0 C 46 % 76 % 0 % 1012,6 hPa 0,0 l/m 0,0 km/h (0 Bft) 0 min 0,0 km/h (0 Bft)
01.05.2010 23:06 20,0 C 11,8 C 0,0 UV-I 0,0 C 46 % 76 % 0 % 1012,6 hPa 0,0 l/m 0,0 km/h (0 Bft) 0 min 0,0 km/h (0 Bft)
01.05.2010 23:08 19,9 C 11,7 C 0,0 UV-I 0,0 C 46 % 76 % 0 % 1012,6 hPa 0,0 l/m 0,0 km/h (0 Bft) 0 min 0,0 km/h (0 Bft)
01.05.2010 23:10 20,0 C 11,7 C 0,0 UV-I 0,0 C 46 % 76 % 0 % 1012,6 hPa 0,0 l/m 0,0 km/h (0 Bft) 0 min 0,0 km/h (0 Bft)
01.05.2010 23:12 19,9 C 11,7 C 0,0 UV-I 0,0 C 46 % 76 % 0 % 1012,5 hPa 0,0 l/m 0,0 km/h (0 Bft) 0 min 0,0 km/h (0 Bft)
01.05.2010 23:14 19,9 C 11,7 C 0,0 UV-I 0,0 C 46 % 76 % 0 % 1012,5 hPa 0,0 l/m 0,0 km/h (0 Bft) 0 min 0,0 km/h (0 Bft)
01.05.2010 23:16 19,9 C 11,7 C 0,0 UV-I 0,0 C 46 % 76 % 0 % 1012,5 hPa 0,0 l/m 0,0 km/h (0 Bft) 0 min 0,0 km/h (0 Bft)
01.05.2010 23:18 19,9 C 11,7 C 0,0 UV-I 0,0 C 46 % 76 % 0 % 1012,5 hPa 0,0 l/m 0,0 km/h (0 Bft) 0 min 0,0 km/h (0 Bft)
01.05.2010 23:20 19,9 C 11,7 C 0,0 UV-I 0,0 C 46 % 77 % 0 % 1012,5 hPa 0,0 l/m 0,8 km/h (0 Bft) 0 min 4,8 km/h (1 Bft)
01.05.2010 23:22 19,9 C 11,7 C 0,0 UV-I 0,0 C 46 % 77 % 0 % 1012,5 hPa 0,0 l/m 0,8 km/h (0 Bft) 0 min 4,8 km/h (1 Bft)
01.05.2010 23:24 19,9 C 11,6 C 0,0 UV-I 0,0 C 46 % 77 % 0 % 1012,5 hPa 0,0 l/m 0,8 km/h (0 Bft) 0 min 0,0 km/h (0 Bft)
01.05.2010 23:26 19,9 C 11,6 C 0,0 UV-I 0,0 C 46 % 77 % 0 % 1012,5 hPa 0,0 l/m 0,8 km/h (0 Bft) 0 min 0,0 km/h (0 Bft)
01.05.2010 23:28 19,9 C 11,6 C 0,0 UV-I 0,0 C 46 % 77 % 0 % 1012,5 hPa 0,0 l/m 0,8 km/h (0 Bft) 0 min 0,0 km/h (0 Bft)
01.05.2010 23:30 19,8 C 11,6 C 0,0 UV-I 0,0 C 46 % 77 % 0 % 1012,5 hPa 0,0 l/m 0,4 km/h (0 Bft) 0 min 0,0 km/h (0 Bft)
01.05.2010 23:36 19,8 C 11,6 C 0,0 UV-I 0,0 C 47 % 77 % 0 % 1012,6 hPa 0,0 l/m 0,0 km/h (0 Bft) 0 min 0,0 km/h (0 Bft)
01.05.2010 23:38 19,8 C 11,7 C 0,0 UV-I 0,0 C 47 % 77 % 0 % 1012,6 hPa 0,0 l/m 0,0 km/h (0 Bft) 0 min 0,0 km/h (0 Bft)
01.05.2010 23:40 19,8 C 11,7 C 0,0 UV-I 0,0 C 47 % 77 % 0 % 1012,6 hPa 0,0 l/m 0,0 km/h (0 Bft) 0 min 0,0 km/h (0 Bft)
01.05.2010 23:42 19,8 C 11,6 C 0,0 UV-I 0,0 C 47 % 77 % 0 % 1012,6 hPa 0,0 l/m 0,0 km/h (0 Bft) 0 min 0,0 km/h (0 Bft)
01.05.2010 23:44 19,8 C 11,6 C 0,0 UV-I 0,0 C 47 % 77 % 0 % 1012,6 hPa 0,0 l/m 0,0 km/h (0 Bft) 0 min 0,0 km/h (0 Bft)
01.05.2010 23:46 19,8 C 11,6 C 0,0 UV-I 0,0 C 47 % 77 % 0 % 1012,6 hPa 0,0 l/m 0,0 km/h (0 Bft) 0 min 0,0 km/h (0 Bft)
01.05.2010 23:50 19,8 C 11,5 C 0,0 UV-I 0,0 C 47 % 77 % 0 % 1012,6 hPa 0,0 l/m 0,0 km/h (0 Bft) 0 min 0,0 km/h (0 Bft)
01.05.2010 23:52 19,8 C 11,5 C 0,0 UV-I 0,0 C 47 % 78 % 0 % 1012,4 hPa 0,0 l/m 0,0 km/h (0 Bft) 0 min 0,0 km/h (0 Bft)
01.05.2010 23:56 19,8 C 11,5 C 0,0 UV-I 0,0 C 47 % 78 % 0 % 1012,4 hPa 0,0 l/m 0,0 km/h (0 Bft) 0 min 0,0 km/h (0 Bft)
01.05.2010 23:58 19,8 C 11,5 C 0,0 UV-I 0,0 C 47 % 78 % 0 % 1012,4 hPa 0,0 l/m 0,0 km/h (0 Bft) 0 min 0,0 km/h (0 Bft)
_ Min-Zeit 06:46 00:52 00:04 00:04 16:16 16:06 00:04 13:32 - 00:04 - 00:04
Minimum _ 18,9 C 9,5 C 0,0 UV-I 0,0 C 36 % 38 % 0 % 1010,7 hPa - 0,0 km/h (0 Bft) - 0,0 km/h (0 Bft)
_ Max-Zeit 16:38 14:18 11:20 10:02 00:04 00:44 09:50 14:32 00:04 17:42 09:48 17:20
Maximum _ 23,2 C 20,1 C 14,6 UV-I 6,5 C 50 % 82 % 100 % 1013,6 hPa 0,0 l/m 18,9 km/h
W-SW (3 Bft)
2 min 45,4 km/h
W (6 Bft)
Durchschnitt _ 20,2 C 13,6 C 2,5 UV-I 1,4 C 45 % 64 % 32 % 1011,8 hPa #0,0 l/m 5,1 km/h (1 Bft) #5:40 h 7,6 km/h (2 Bft)
© 2012 W. Hausmann